2016 Cux-Wetter.de -Die Nutzung der Wetterdaten nur mit ausdrcklicher Genehmigung
Wetterdaten: Sonntag, 24.07.2016
Datum Zeit Temp. A. Feuchte A. Luftdruck Regen Wind Richtung Richtung Sonnenschein Solar Taupunkt Windchill Windben
24.07.2016 00:00 20,2 C 87 % 1018,2 hPa 0,0 l/m 0,0 km/h (0 Bft) NW 317 0 min 0 W/m 18,0 C 20,2 C 1,6 km/h (1 Bft)
24.07.2016 00:03 20,3 C 88 % 1018,2 hPa 0,0 l/m 0,0 km/h (0 Bft) NW 317 0 min 0 W/m 18,2 C 20,3 C 0,0 km/h (0 Bft)
24.07.2016 00:06 20,6 C 86 % 1018,2 hPa 0,0 l/m 0,0 km/h (0 Bft) NW 317 0 min 0 W/m 18,2 C 20,6 C 0,0 km/h (0 Bft)
24.07.2016 00:09 20,6 C 85 % 1018,3 hPa 0,0 l/m 0,0 km/h (0 Bft) NW 317 0 min 0 W/m 18,0 C 20,6 C 0,0 km/h (0 Bft)
24.07.2016 00:12 20,3 C 86 % 1018,3 hPa 0,0 l/m 0,2 km/h (0 Bft) NW 317 0 min 0 W/m 17,9 C 20,3 C 1,6 km/h (1 Bft)
24.07.2016 00:15 20,1 C 87 % 1018,4 hPa 0,0 l/m 0,0 km/h (0 Bft) NW 317 0 min 0 W/m 17,9 C 20,1 C 0,0 km/h (0 Bft)
24.07.2016 00:18 20,2 C 87 % 1018,3 hPa 0,0 l/m 0,0 km/h (0 Bft) NW 317 0 min 0 W/m 18,0 C 20,2 C 0,0 km/h (0 Bft)
24.07.2016 00:21 20,4 C 87 % 1018,4 hPa 0,0 l/m 0,3 km/h (0 Bft) NW 317 0 min 0 W/m 18,2 C 20,4 C 1,6 km/h (1 Bft)
24.07.2016 00:24 20,3 C 87 % 1018,4 hPa 0,0 l/m 0,2 km/h (0 Bft) NW 317 0 min 0 W/m 18,1 C 20,3 C 1,6 km/h (1 Bft)
24.07.2016 00:27 20,4 C 87 % 1018,3 hPa 0,0 l/m 0,0 km/h (0 Bft) NW 317 0 min 0 W/m 18,2 C 20,4 C 0,0 km/h (0 Bft)
24.07.2016 00:30 20,6 C 87 % 1018,4 hPa 0,0 l/m 0,0 km/h (0 Bft) NW 317 0 min 0 W/m 18,4 C 20,6 C 1,6 km/h (1 Bft)
24.07.2016 00:33 20,6 C 87 % 1018,3 hPa 0,0 l/m 0,1 km/h (0 Bft) NW 317 0 min 0 W/m 18,4 C 20,6 C 1,6 km/h (1 Bft)
24.07.2016 00:36 20,6 C 87 % 1018,3 hPa 0,0 l/m 0,4 km/h (0 Bft) NW 317 0 min 0 W/m 18,4 C 20,6 C 3,2 km/h (1 Bft)
24.07.2016 00:39 20,6 C 87 % 1018,3 hPa 0,0 l/m 0,7 km/h (0 Bft) NW 317 0 min 0 W/m 18,4 C 20,6 C 1,6 km/h (1 Bft)
24.07.2016 00:42 20,6 C 88 % 1018,3 hPa 0,0 l/m 0,4 km/h (0 Bft) N 355 0 min 0 W/m 18,5 C 20,6 C 3,2 km/h (1 Bft)
24.07.2016 00:45 20,6 C 87 % 1018,4 hPa 0,0 l/m 0,2 km/h (0 Bft) N 355 0 min 0 W/m 18,4 C 20,6 C 1,6 km/h (1 Bft)
24.07.2016 00:48 20,6 C 88 % 1018,4 hPa 0,0 l/m 0,1 km/h (0 Bft) N 355 0 min 0 W/m 18,5 C 20,6 C 1,6 km/h (1 Bft)
24.07.2016 00:51 20,5 C 87 % 1018,4 hPa 0,0 l/m 0,4 km/h (0 Bft) N 355 0 min 0 W/m 18,3 C 20,5 C 1,6 km/h (1 Bft)
24.07.2016 00:54 20,4 C 88 % 1018,4 hPa 0,0 l/m 0,6 km/h (0 Bft) NO 44 0 min 0 W/m 18,3 C 20,4 C 3,2 km/h (1 Bft)
24.07.2016 00:57 20,3 C 87 % 1018,4 hPa 0,0 l/m 0,5 km/h (0 Bft) NO 44 0 min 0 W/m 18,1 C 20,3 C 1,6 km/h (1 Bft)
24.07.2016 01:00 20,3 C 88 % 1018,3 hPa 0,0 l/m 0,9 km/h (0 Bft) O 88 0 min 0 W/m 18,2 C 20,3 C 4,8 km/h (1 Bft)
24.07.2016 01:03 20,2 C 88 % 1018,4 hPa 0,0 l/m 1,4 km/h (1 Bft) O 88 0 min 0 W/m 18,1 C 20,2 C 3,2 km/h (1 Bft)
24.07.2016 01:06 20,2 C 88 % 1018,4 hPa 0,0 l/m 0,8 km/h (0 Bft) O 88 0 min 0 W/m 18,1 C 20,2 C 3,2 km/h (1 Bft)
24.07.2016 01:09 20,2 C 88 % 1018,4 hPa 0,0 l/m 1,2 km/h (1 Bft) O 88 0 min 0 W/m 18,1 C 20,2 C 3,2 km/h (1 Bft)
24.07.2016 01:12 20,2 C 88 % 1018,4 hPa 0,0 l/m 1,4 km/h (1 Bft) O 88 0 min 0 W/m 18,1 C 20,2 C 3,2 km/h (1 Bft)
24.07.2016 01:15 20,2 C 88 % 1018,4 hPa 0,0 l/m 0,9 km/h (0 Bft) O 88 0 min 0 W/m 18,1 C 20,2 C 3,2 km/h (1 Bft)
24.07.2016 01:18 20,3 C 87 % 1018,4 hPa 0,0 l/m 1,1 km/h (1 Bft) O 88 0 min 0 W/m 18,1 C 20,3 C 3,2 km/h (1 Bft)
24.07.2016 01:21 20,3 C 87 % 1018,4 hPa 0,0 l/m 0,8 km/h (0 Bft) O 88 0 min 0 W/m 18,1 C 20,3 C 3,2 km/h (1 Bft)
24.07.2016 01:24 20,2 C 86 % 1018,4 hPa 0,0 l/m 0,9 km/h (0 Bft) O 88 0 min 0 W/m 17,8 C 20,2 C 3,2 km/h (1 Bft)
24.07.2016 01:27 20,0 C 87 % 1018,4 hPa 0,0 l/m 0,7 km/h (0 Bft) O 88 0 min 0 W/m 17,8 C 20,0 C 3,2 km/h (1 Bft)
24.07.2016 01:30 20,0 C 87 % 1018,4 hPa 0,0 l/m 0,3 km/h (0 Bft) O 88 0 min 0 W/m 17,8 C 20,0 C 1,6 km/h (1 Bft)
24.07.2016 01:33 19,8 C 86 % 1018,4 hPa 0,0 l/m 1,4 km/h (1 Bft) O 88 0 min 0 W/m 17,4 C 19,8 C 3,2 km/h (1 Bft)
24.07.2016 01:36 19,8 C 87 % 1018,4 hPa 0,0 l/m 0,0 km/h (0 Bft) O 88 0 min 0 W/m 17,6 C 19,8 C 0,0 km/h (0 Bft)
24.07.2016 01:39 19,8 C 87 % 1018,4 hPa 0,0 l/m 0,0 km/h (0 Bft) O 88 0 min 0 W/m 17,6 C 19,8 C 0,0 km/h (0 Bft)
24.07.2016 01:42 19,8 C 87 % 1018,3 hPa 0,0 l/m 0,5 km/h (0 Bft) O 88 0 min 0 W/m 17,6 C 19,8 C 3,2 km/h (1 Bft)
24.07.2016 01:45 19,8 C 87 % 1018,3 hPa 0,0 l/m 0,1 km/h (0 Bft) O 88 0 min 0 W/m 17,6 C 19,8 C 1,6 km/h (1 Bft)
24.07.2016 01:48 19,9 C 86 % 1018,3 hPa 0,0 l/m 0,1 km/h (0 Bft) O 88 0 min 0 W/m 17,5 C 19,9 C 1,6 km/h (1 Bft)
24.07.2016 01:51 19,7 C 86 % 1018,3 hPa 0,0 l/m 0,1 km/h (0 Bft) O 88 0 min 0 W/m 17,3 C 19,7 C 1,6 km/h (1 Bft)
24.07.2016 01:54 19,6 C 88 % 1018,2 hPa 0,0 l/m 0,3 km/h (0 Bft) O 88 0 min 0 W/m 17,6 C 19,6 C 1,6 km/h (1 Bft)
24.07.2016 01:57 19,6 C 88 % 1018,2 hPa 0,0 l/m 0,0 km/h (0 Bft) O 88 0 min 0 W/m 17,6 C 19,6 C 0,0 km/h (0 Bft)
24.07.2016 02:00 19,7 C 88 % 1018,2 hPa 0,0 l/m 0,0 km/h (0 Bft) O 88 0 min 0 W/m 17,7 C 19,7 C 0,0 km/h (0 Bft)
24.07.2016 02:03 19,7 C 87 % 1018,2 hPa 0,0 l/m 0,4 km/h (0 Bft) O 88 0 min 0 W/m 17,5 C 19,7 C 1,6 km/h (1 Bft)
24.07.2016 02:06 19,7 C 87 % 1018,2 hPa 0,0 l/m 1,2 km/h (1 Bft) O 88 0 min 0 W/m 17,5 C 19,7 C 3,2 km/h (1 Bft)
24.07.2016 02:09 19,7 C 87 % 1018,2 hPa 0,0 l/m 1,0 km/h (0 Bft) O 88 0 min 0 W/m 17,5 C 19,7 C 3,2 km/h (1 Bft)
24.07.2016 02:12 19,7 C 87 % 1018,2 hPa 0,0 l/m 0,5 km/h (0 Bft) O 88 0 min 0 W/m 17,5 C 19,7 C 3,2 km/h (1 Bft)
24.07.2016 02:15 19,7 C 88 % 1018,1 hPa 0,0 l/m 0,1 km/h (0 Bft) O 88 0 min 0 W/m 17,7 C 19,7 C 1,6 km/h (1 Bft)
24.07.2016 02:18 19,7 C 88 % 1018,1 hPa 0,0 l/m 0,0 km/h (0 Bft) O 88 0 min 0 W/m 17,7 C 19,7 C 1,6 km/h (1 Bft)
24.07.2016 02:21 19,6 C 88 % 1018,1 hPa 0,0 l/m 0,1 km/h (0 Bft) O 88 0 min 0 W/m 17,6 C 19,6 C 1,6 km/h (1 Bft)
24.07.2016 02:24 19,6 C 88 % 1018,1 hPa 0,0 l/m 0,1 km/h (0 Bft) O 88 0 min 0 W/m 17,6 C 19,6 C 1,6 km/h (1 Bft)
24.07.2016 02:27 19,6 C 87 % 1018,1 hPa 0,0 l/m 0,0 km/h (0 Bft) O 88 0 min 0 W/m 17,4 C 19,6 C 0,0 km/h (0 Bft)
24.07.2016 02:30 19,4 C 88 % 1018,1 hPa 0,0 l/m 0,2 km/h (0 Bft) O 88 0 min 0 W/m 17,4 C 19,4 C 1,6 km/h (1 Bft)
24.07.2016 02:33 19,4 C 87 % 1018,2 hPa 0,0 l/m 0,4 km/h (0 Bft) O 88 0 min 0 W/m 17,2 C 19,4 C 3,2 km/h (1 Bft)
24.07.2016 02:36 19,3 C 87 % 1018,1 hPa 0,0 l/m 0,6 km/h (0 Bft) O 88 0 min 0 W/m 17,1 C 19,3 C 1,6 km/h (1 Bft)
24.07.2016 02:39 19,3 C 87 % 1018,1 hPa 0,0 l/m 0,4 km/h (0 Bft) O 88 0 min 0 W/m 17,1 C 19,3 C 1,6 km/h (1 Bft)
24.07.2016 02:42 19,3 C 86 % 1018,1 hPa 0,0 l/m 0,9 km/h (0 Bft) O 88 0 min 0 W/m 16,9 C 19,3 C 3,2 km/h (1 Bft)
24.07.2016 02:45 19,2 C 86 % 1018,2 hPa 0,0 l/m 0,4 km/h (0 Bft) O 88 0 min 0 W/m 16,8 C 19,2 C 3,2 km/h (1 Bft)
24.07.2016 02:48 19,3 C 86 % 1018,1 hPa 0,0 l/m 0,0 km/h (0 Bft) O 88 0 min 0 W/m 16,9 C 19,3 C 0,0 km/h (0 Bft)
24.07.2016 02:51 19,3 C 86 % 1018,2 hPa 0,0 l/m 0,0 km/h (0 Bft) O 88 0 min 0 W/m 16,9 C 19,3 C 0,0 km/h (0 Bft)
24.07.2016 02:54 19,2 C 87 % 1018,2 hPa 0,0 l/m 0,1 km/h (0 Bft) O 88 0 min 0 W/m 17,0 C 19,2 C 1,6 km/h (1 Bft)
24.07.2016 02:57 19,2 C 87 % 1018,2 hPa 0,0 l/m 0,0 km/h (0 Bft) O 88 0 min 0 W/m 17,0 C 19,2 C 0,0 km/h (0 Bft)
24.07.2016 03:00 19,1 C 87 % 1018,2 hPa 0,0 l/m 0,0 km/h (0 Bft) O 88 0 min 0 W/m 16,9 C 19,1 C 0,0 km/h (0 Bft)
24.07.2016 03:03 19,1 C 87 % 1018,2 hPa 0,0 l/m 0,0 km/h (0 Bft) O 88 0 min 0 W/m 16,9 C 19,1 C 0,0 km/h (0 Bft)
24.07.2016 03:06 19,1 C 87 % 1018,2 hPa 0,0 l/m 0,0 km/h (0 Bft) O 88 0 min 0 W/m 16,9 C 19,1 C 0,0 km/h (0 Bft)
24.07.2016 03:09 19,1 C 87 % 1018,2 hPa 0,0 l/m 0,0 km/h (0 Bft) O 88 0 min 0 W/m 16,9 C 19,1 C 0,0 km/h (0 Bft)
24.07.2016 03:12 19,1 C 86 % 1018,3 hPa 0,0 l/m 0,0 km/h (0 Bft) O 88 0 min 0 W/m 16,7 C 19,1 C 1,6 km/h (1 Bft)
24.07.2016 03:15 19,1 C 87 % 1018,3 hPa 0,0 l/m 0,0 km/h (0 Bft) O 88 0 min 0 W/m 16,9 C 19,1 C 1,6 km/h (1 Bft)
24.07.2016 03:18 19,1 C 87 % 1018,2 hPa 0,0 l/m 0,0 km/h (0 Bft) O 88 0 min 0 W/m 16,9 C 19,1 C 0,0 km/h (0 Bft)
24.07.2016 03:21 19,2 C 87 % 1018,2 hPa 0,0 l/m 0,0 km/h (0 Bft) O 88 0 min 0 W/m 17,0 C 19,2 C 0,0 km/h (0 Bft)
24.07.2016 03:24 19,3 C 86 % 1018,2 hPa 0,0 l/m 0,0 km/h (0 Bft) O 88 0 min 0 W/m 16,9 C 19,3 C 0,0 km/h (0 Bft)
24.07.2016 03:27 19,3 C 85 % 1018,2 hPa 0,0 l/m 0,0 km/h (0 Bft) O 88 0 min 0 W/m 16,7 C 19,3 C 0,0 km/h (0 Bft)
24.07.2016 03:30 19,2 C 85 % 1018,2 hPa 0,0 l/m 0,1 km/h (0 Bft) O 88 0 min 0 W/m 16,6 C 19,2 C 1,6 km/h (1 Bft)
24.07.2016 03:33 19,1 C 86 % 1018,2 hPa 0,0 l/m 0,0 km/h (0 Bft) O 88 0 min 0 W/m 16,7 C 19,1 C 1,6 km/h (1 Bft)
24.07.2016 03:36 18,9 C 85 % 1018,2 hPa 0,0 l/m 4,6 km/h (1 Bft) W-SW 245 0 min 0 W/m 16,3 C 18,9 C 12,9 km/h (3 Bft)
24.07.2016 03:39 18,7 C 87 % 1018,3 hPa 0,0 l/m 5,1 km/h (1 Bft) W-SW 244 0 min 0 W/m 16,5 C 18,7 C 11,3 km/h (2 Bft)
24.07.2016 03:42 18,6 C 87 % 1018,2 hPa 0,0 l/m 0,1 km/h (0 Bft) W-SW 244 0 min 0 W/m 16,4 C 18,6 C 1,6 km/h (1 Bft)
24.07.2016 03:45 18,7 C 87 % 1018,2 hPa 0,0 l/m 1,3 km/h (1 Bft) W-SW 244 0 min 0 W/m 16,5 C 18,7 C 1,6 km/h (1 Bft)
24.07.2016 03:48 18,7 C 85 % 1018,3 hPa 0,0 l/m 1,3 km/h (1 Bft) W-SW 244 0 min 0 W/m 16,1 C 18,7 C 3,2 km/h (1 Bft)
24.07.2016 03:51 18,6 C 85 % 1018,2 hPa 0,0 l/m 0,0 km/h (0 Bft) W-SW 244 0 min 0 W/m 16,0 C 18,6 C 0,0 km/h (0 Bft)
24.07.2016 03:54 18,2 C 86 % 1018,2 hPa 0,0 l/m 0,5 km/h (0 Bft) W-SW 244 0 min 0 W/m 15,8 C 18,2 C 1,6 km/h (1 Bft)
24.07.2016 03:57 18,1 C 87 % 1018,2 hPa 0,0 l/m 0,8 km/h (0 Bft) W-SW 244 0 min 0 W/m 15,9 C 18,1 C 3,2 km/h (1 Bft)
24.07.2016 04:00 18,0 C 88 % 1018,2 hPa 0,0 l/m 0,2 km/h (0 Bft) W-SW 244 0 min 0 W/m 16,0 C 18,0 C 1,6 km/h (1 Bft)
24.07.2016 04:03 18,0 C 88 % 1018,2 hPa 0,0 l/m 0,0 km/h (0 Bft) W-SW 244 0 min 0 W/m 16,0 C 18,0 C 0,0 km/h (0 Bft)
24.07.2016 04:06 18,1 C 88 % 1018,2 hPa 0,0 l/m 0,1 km/h (0 Bft) W-SW 244 0 min 0 W/m 16,1 C 18,1 C 1,6 km/h (1 Bft)
24.07.2016 04:09 18,1 C 87 % 1018,2 hPa 0,0 l/m 0,4 km/h (0 Bft) W-SW 244 0 min 0 W/m 15,9 C 18,1 C 1,6 km/h (1 Bft)
24.07.2016 04:12 18,1 C 88 % 1018,2 hPa 0,0 l/m 0,1 km/h (0 Bft) W-SW 244 0 min 0 W/m 16,1 C 18,1 C 1,6 km/h (1 Bft)
24.07.2016 04:15 18,2 C 88 % 1018,2 hPa 0,0 l/m 0,0 km/h (0 Bft) W-SW 244 0 min 0 W/m 16,2 C 18,2 C 0,0 km/h (0 Bft)
24.07.2016 04:18 18,2 C 86 % 1018,2 hPa 0,0 l/m 0,0 km/h (0 Bft) W-SW 244 0 min 0 W/m 15,8 C 18,2 C 0,0 km/h (0 Bft)
24.07.2016 04:21 18,2 C 87 % 1018,2 hPa 0,0 l/m 0,0 km/h (0 Bft) W-SW 244 0 min 0 W/m 16,0 C 18,2 C 0,0 km/h (0 Bft)
24.07.2016 04:24 18,3 C 87 % 1018,2 hPa 0,0 l/m 0,0 km/h (0 Bft) W-SW 244 0 min 0 W/m 16,1 C 18,3 C 0,0 km/h (0 Bft)
24.07.2016 04:27 18,3 C 87 % 1018,2 hPa 0,0 l/m 0,1 km/h (0 Bft) W-SW 244 0 min 0 W/m 16,1 C 18,3 C 1,6 km/h (1 Bft)
24.07.2016 04:30 18,2 C 87 % 1018,2 hPa 0,0 l/m 0,4 km/h (0 Bft) W-SW 244 0 min 0 W/m 16,0 C 18,2 C 1,6 km/h (1 Bft)
24.07.2016 04:33 18,2 C 86 % 1018,2 hPa 0,0 l/m 0,0 km/h (0 Bft) W-SW 244 0 min 0 W/m 15,8 C 18,2 C 0,0 km/h (0 Bft)
24.07.2016 04:36 18,1 C 87 % 1018,1 hPa 0,0 l/m 0,3 km/h (0 Bft) W-SW 244 0 min 0 W/m 15,9 C 18,1 C 1,6 km/h (1 Bft)
24.07.2016 04:39 18,2 C 87 % 1018,1 hPa 0,0 l/m 0,1 km/h (0 Bft) W-SW 244 0 min 0 W/m 16,0 C 18,2 C 1,6 km/h (1 Bft)
24.07.2016 04:42 18,4 C 87 % 1018,1 hPa 0,0 l/m 0,0 km/h (0 Bft) W-SW 244 0 min 0 W/m 16,2 C 18,4 C 0,0 km/h (0 Bft)
24.07.2016 04:45 18,6 C 86 % 1018,1 hPa 0,0 l/m 0,0 km/h (0 Bft) W-SW 244 0 min 0 W/m 16,2 C 18,6 C 0,0 km/h (0 Bft)
24.07.2016 04:48 18,7 C 85 % 1018,0 hPa 0,0 l/m 0,0 km/h (0 Bft) W-SW 244 0 min 0 W/m 16,1 C 18,7 C 0,0 km/h (0 Bft)
24.07.2016 04:51 18,7 C 85 % 1018,0 hPa 0,0 l/m 0,0 km/h (0 Bft) W-SW 244 0 min 0 W/m 16,1 C 18,7 C 0,0 km/h (0 Bft)
24.07.2016 04:54 18,7 C 84 % 1017,9 hPa 0,0 l/m 0,0 km/h (0 Bft) W-SW 244 0 min 0 W/m 15,9 C 18,7 C 0,0 km/h (0 Bft)
24.07.2016 04:57 18,5 C 85 % 1018,0 hPa 0,0 l/m 1,0 km/h (0 Bft) W-SW 244 0 min 0 W/m 15,9 C 18,5 C 1,6 km/h (1 Bft)
24.07.2016 05:00 18,5 C 86 % 1018,0 hPa 0,0 l/m 0,0 km/h (0 Bft) W-SW 244 0 min 0 W/m 16,1 C 18,5 C 0,0 km/h (0 Bft)
24.07.2016 05:03 18,6 C 85 % 1017,9 hPa 0,0 l/m 0,0 km/h (0 Bft) W-SW 244 0 min 0 W/m 16,0 C 18,6 C 0,0 km/h (0 Bft)
24.07.2016 05:06 18,4 C 85 % 1017,9 hPa 0,0 l/m 0,0 km/h (0 Bft) W-SW 244 0 min 0 W/m 15,8 C 18,4 C 0,0 km/h (0 Bft)
24.07.2016 05:09 18,3 C 84 % 1017,9 hPa 0,0 l/m 0,0 km/h (0 Bft) W-SW 244 0 min 0 W/m 15,5 C 18,3 C 0,0 km/h (0 Bft)
24.07.2016 05:12 18,1 C 84 % 1018,0 hPa 0,0 l/m 0,6 km/h (0 Bft) W-SW 244 0 min 0 W/m 15,4 C 18,1 C 3,2 km/h (1 Bft)
24.07.2016 05:15 17,6 C 85 % 1018,0 hPa 0,0 l/m 0,5 km/h (0 Bft) W-SW 244 0 min 0 W/m 15,0 C 17,6 C 3,2 km/h (1 Bft)
24.07.2016 05:18 17,3 C 87 % 1018,0 hPa 0,0 l/m 0,2 km/h (0 Bft) W-SW 244 0 min 0 W/m 15,1 C 17,3 C 1,6 km/h (1 Bft)
24.07.2016 05:21 17,2 C 88 % 1018,0 hPa 0,0 l/m 1,1 km/h (1 Bft) W-SW 244 0 min 0 W/m 15,2 C 17,2 C 1,6 km/h (1 Bft)
24.07.2016 05:24 17,1 C 89 % 1018,0 hPa 0,0 l/m 0,6 km/h (0 Bft) W-SW 244 0 min 0 W/m 15,3 C 17,1 C 1,6 km/h (1 Bft)
24.07.2016 05:27 17,0 C 89 % 1018,0 hPa 0,0 l/m 1,0 km/h (0 Bft) W-SW 244 0 min 0 W/m 15,2 C 17,0 C 3,2 km/h (1 Bft)
24.07.2016 05:30 17,2 C 90 % 1017,9 hPa 0,0 l/m 0,3 km/h (0 Bft) W-SW 244 0 min 0 W/m 15,5 C 17,2 C 1,6 km/h (1 Bft)
24.07.2016 05:33 17,5 C 89 % 1018,0 hPa 0,0 l/m 0,0 km/h (0 Bft) W-SW 244 0 min 0 W/m 15,7 C 17,5 C 0,0 km/h (0 Bft)
24.07.2016 05:36 17,8 C 88 % 1017,9 hPa 0,0 l/m 0,0 km/h (0 Bft) W-SW 244 0 min 0 W/m 15,8 C 17,8 C 0,0 km/h (0 Bft)
24.07.2016 05:39 18,0 C 87 % 1017,9 hPa 0,0 l/m 0,0 km/h (0 Bft) W-SW 244 0 min 0 W/m 15,8 C 18,0 C 0,0 km/h (0 Bft)
24.07.2016 05:42 18,1 C 86 % 1017,9 hPa 0,0 l/m 0,0 km/h (0 Bft) W-SW 244 0 min 0 W/m 15,7 C 18,1 C 0,0 km/h (0 Bft)
24.07.2016 05:45 18,3 C 86 % 1017,8 hPa 0,0 l/m 0,0 km/h (0 Bft) W-SW 244 0 min 0 W/m 15,9 C 18,3 C 0,0 km/h (0 Bft)
24.07.2016 05:48 18,3 C 84 % 1017,8 hPa 0,0 l/m 0,0 km/h (0 Bft) W-SW 244 0 min 0 W/m 15,5 C 18,3 C 0,0 km/h (0 Bft)
24.07.2016 05:51 17,9 C 85 % 1017,9 hPa 0,0 l/m 0,0 km/h (0 Bft) W-SW 244 0 min 5 W/m 15,3 C 17,9 C 0,0 km/h (0 Bft)
24.07.2016 05:54 17,7 C 86 % 1017,9 hPa 0,0 l/m 0,0 km/h (0 Bft) W-SW 244 0 min 5 W/m 15,3 C 17,7 C 0,0 km/h (0 Bft)
24.07.2016 05:57 17,6 C 87 % 1017,9 hPa 0,0 l/m 0,0 km/h (0 Bft) W-SW 244 0 min 5 W/m 15,4 C 17,6 C 0,0 km/h (0 Bft)
24.07.2016 06:00 17,6 C 87 % 1017,9 hPa 0,0 l/m 0,0 km/h (0 Bft) W-SW 244 0 min 7 W/m 15,4 C 17,6 C 0,0 km/h (0 Bft)
24.07.2016 06:03 17,6 C 87 % 1017,9 hPa 0,0 l/m 0,0 km/h (0 Bft) W-SW 244 0 min 7 W/m 15,4 C 17,6 C 0,0 km/h (0 Bft)
24.07.2016 06:06 17,6 C 87 % 1017,9 hPa 0,0 l/m 0,0 km/h (0 Bft) W-SW 244 0 min 7 W/m 15,4 C 17,6 C 0,0 km/h (0 Bft)
24.07.2016 06:09 17,7 C 87 % 1018,0 hPa 0,0 l/m 0,1 km/h (0 Bft) W-SW 244 0 min 9 W/m 15,5 C 17,7 C 1,6 km/h (1 Bft)
24.07.2016 06:12 17,6 C 86 % 1018,0 hPa 0,0 l/m 0,9 km/h (0 Bft) W-SW 244 0 min 9 W/m 15,2 C 17,6 C 1,6 km/h (1 Bft)
24.07.2016 06:15 17,3 C 87 % 1018,0 hPa 0,0 l/m 1,1 km/h (1 Bft) W-SW 244 0 min 9 W/m 15,1 C 17,3 C 1,6 km/h (1 Bft)
24.07.2016 06:18 17,3 C 88 % 1018,0 hPa 0,0 l/m 0,0 km/h (0 Bft) W-SW 244 0 min 11 W/m 15,3 C 17,3 C 0,0 km/h (0 Bft)
24.07.2016 06:21 17,3 C 88 % 1018,0 hPa 0,0 l/m 0,0 km/h (0 Bft) W-SW 244 0 min 11 W/m 15,3 C 17,3 C 1,6 km/h (1 Bft)
24.07.2016 06:24 17,4 C 88 % 1018,0 hPa 0,0 l/m 0,1 km/h (0 Bft) W-SW 244 0 min 12 W/m 15,4 C 17,4 C 1,6 km/h (1 Bft)
24.07.2016 06:27 17,5 C 87 % 1017,9 hPa 0,0 l/m 0,3 km/h (0 Bft) W-SW 244 0 min 12 W/m 15,3 C 17,5 C 1,6 km/h (1 Bft)
24.07.2016 06:30 17,6 C 87 % 1018,0 hPa 0,0 l/m 1,1 km/h (1 Bft) W-SW 244 0 min 12 W/m 15,4 C 17,6 C 3,2 km/h (1 Bft)
24.07.2016 06:33 17,5 C 87 % 1017,9 hPa 0,0 l/m 0,5 km/h (0 Bft) W-SW 244 0 min 12 W/m 15,3 C 17,5 C 1,6 km/h (1 Bft)
24.07.2016 06:36 17,4 C 88 % 1017,8 hPa 0,0 l/m 1,0 km/h (0 Bft) W-SW 244 0 min 14 W/m 15,4 C 17,4 C 1,6 km/h (1 Bft)
24.07.2016 06:39 17,4 C 88 % 1017,9 hPa 0,0 l/m 1,1 km/h (1 Bft) SO 130 0 min 14 W/m 15,4 C 17,4 C 4,8 km/h (1 Bft)
24.07.2016 06:42 17,6 C 88 % 1017,9 hPa 0,0 l/m 1,4 km/h (1 Bft) SO 130 0 min 14 W/m 15,6 C 17,6 C 3,2 km/h (1 Bft)
24.07.2016 06:45 17,7 C 88 % 1017,9 hPa 0,0 l/m 1,8 km/h (1 Bft) SO 130 0 min 16 W/m 15,7 C 17,7 C 3,2 km/h (1 Bft)
24.07.2016 06:48 17,8 C 88 % 1017,9 hPa 0,0 l/m 2,1 km/h (1 Bft) SO 131 0 min 16 W/m 15,8 C 17,8 C 4,8 km/h (1 Bft)
24.07.2016 06:51 17,8 C 88 % 1017,9 hPa 0,0 l/m 1,5 km/h (1 Bft) SO 130 0 min 16 W/m 15,8 C 17,8 C 3,2 km/h (1 Bft)
24.07.2016 06:54 17,8 C 88 % 1017,9 hPa 0,0 l/m 1,4 km/h (1 Bft) SO 130 0 min 16 W/m 15,8 C 17,8 C 3,2 km/h (1 Bft)
24.07.2016 06:57 17,9 C 88 % 1017,9 hPa 0,0 l/m 1,7 km/h (1 Bft) SO 134 0 min 16 W/m 15,9 C 17,9 C 4,8 km/h (1 Bft)
24.07.2016 07:00 17,9 C 88 % 1017,9 hPa 0,0 l/m 1,4 km/h (1 Bft) SO 132 0 min 18 W/m 15,9 C 17,9 C 3,2 km/h (1 Bft)
24.07.2016 07:03 18,1 C 87 % 1017,9 hPa 0,0 l/m 0,7 km/h (0 Bft) SO 132 0 min 18 W/m 15,9 C 18,1 C 1,6 km/h (1 Bft)
24.07.2016 07:06 18,2 C 87 % 1017,9 hPa 0,0 l/m 1,9 km/h (1 Bft) SO 136 0 min 18 W/m 16,0 C 18,2 C 3,2 km/h (1 Bft)
24.07.2016 07:09 18,2 C 87 % 1017,9 hPa 0,0 l/m 3,0 km/h (1 Bft) SO 136 0 min 18 W/m 16,0 C 18,2 C 4,8 km/h (1 Bft)
24.07.2016 07:12 18,3 C 87 % 1017,8 hPa 0,0 l/m 2,2 km/h (1 Bft) SO 136 0 min 19 W/m 16,1 C 18,3 C 3,2 km/h (1 Bft)
24.07.2016 07:15 18,3 C 87 % 1017,9 hPa 0,0 l/m 2,1 km/h (1 Bft) SO 137 0 min 19 W/m 16,1 C 18,3 C 3,2 km/h (1 Bft)
24.07.2016 07:18 18,4 C 87 % 1017,8 hPa 0,0 l/m 3,6 km/h (1 Bft) SO 135 0 min 19 W/m 16,2 C 18,4 C 4,8 km/h (1 Bft)
24.07.2016 07:21 18,5 C 87 % 1017,8 hPa 0,0 l/m 2,2 km/h (1 Bft) SO 137 0 min 19 W/m 16,3 C 18,5 C 4,8 km/h (1 Bft)
24.07.2016 07:24 18,6 C 86 % 1017,8 hPa 0,0 l/m 1,4 km/h (1 Bft) SO 137 0 min 19 W/m 16,2 C 18,6 C 3,2 km/h (1 Bft)
24.07.2016 07:27 18,8 C 86 % 1017,7 hPa 0,0 l/m 1,6 km/h (1 Bft) SO 137 0 min 19 W/m 16,4 C 18,8 C 3,2 km/h (1 Bft)
24.07.2016 07:30 18,8 C 86 % 1017,8 hPa 0,0 l/m 1,3 km/h (1 Bft) SO 137 0 min 19 W/m 16,4 C 18,8 C 3,2 km/h (1 Bft)
24.07.2016 07:33 18,9 C 86 % 1017,8 hPa 0,0 l/m 1,1 km/h (1 Bft) SO 137 0 min 19 W/m 16,5 C 18,9 C 3,2 km/h (1 Bft)
24.07.2016 07:36 19,0 C 86 % 1017,8 hPa 0,0 l/m 0,6 km/h (0 Bft) SO 137 0 min 19 W/m 16,6 C 19,0 C 3,2 km/h (1 Bft)
24.07.2016 07:39 19,2 C 86 % 1017,8 hPa 0,0 l/m 1,1 km/h (1 Bft) SO 137 0 min 21 W/m 16,8 C 19,2 C 3,2 km/h (1 Bft)
24.07.2016 07:42 19,3 C 86 % 1017,8 hPa 0,0 l/m 0,1 km/h (0 Bft) SO 137 0 min 21 W/m 16,9 C 19,3 C 1,6 km/h (1 Bft)
24.07.2016 07:45 19,4 C 86 % 1017,8 hPa 0,0 l/m 0,3 km/h (0 Bft) SO 137 0 min 21 W/m 17,0 C 19,4 C 1,6 km/h (1 Bft)
24.07.2016 07:48 19,6 C 85 % 1017,8 hPa 0,0 l/m 1,4 km/h (1 Bft) SO 137 0 min 21 W/m 17,0 C 19,6 C 3,2 km/h (1 Bft)
24.07.2016 07:51 19,7 C 86 % 1017,8 hPa 0,0 l/m 0,7 km/h (0 Bft) SO 137 0 min 23 W/m 17,3 C 19,7 C 1,6 km/h (1 Bft)
24.07.2016 07:54 19,7 C 86 % 1017,9 hPa 0,0 l/m 0,6 km/h (0 Bft) SO 137 0 min 23 W/m 17,3 C 19,7 C 3,2 km/h (1 Bft)
24.07.2016 07:57 19,8 C 86 % 1017,8 hPa 0,0 l/m 1,6 km/h (1 Bft) SO 137 0 min 23 W/m 17,4 C 19,8 C 3,2 km/h (1 Bft)
24.07.2016 08:00 20,0 C 86 % 1017,9 hPa 0,0 l/m 2,4 km/h (1 Bft) S-SO 163 0 min 25 W/m 17,6 C 20,0 C 6,4 km/h (2 Bft)
24.07.2016 08:03 20,1 C 85 % 1017,9 hPa 0,0 l/m 2,5 km/h (1 Bft) S-SO 161 0 min 25 W/m 17,5 C 20,1 C 6,4 km/h (2 Bft)
24.07.2016 08:06 20,2 C 85 % 1017,9 hPa 0,0 l/m 1,2 km/h (1 Bft) S-SO 161 0 min 25 W/m 17,6 C 20,2 C 3,2 km/h (1 Bft)
24.07.2016 08:09 20,2 C 85 % 1018,0 hPa 0,0 l/m 1,9 km/h (1 Bft) S-SO 161 0 min 25 W/m 17,6 C 20,2 C 3,2 km/h (1 Bft)
24.07.2016 08:12 20,2 C 84 % 1018,0 hPa 0,0 l/m 4,0 km/h (1 Bft) SO 127 0 min 26 W/m 17,4 C 20,2 C 8,0 km/h (2 Bft)
24.07.2016 08:15 20,2 C 85 % 1017,9 hPa 0,0 l/m 1,1 km/h (1 Bft) SO 126 0 min 26 W/m 17,6 C 20,2 C 3,2 km/h (1 Bft)
24.07.2016 08:18 20,1 C 84 % 1017,9 hPa 0,0 l/m 2,6 km/h (1 Bft) SO 127 0 min 26 W/m 17,3 C 20,1 C 4,8 km/h (1 Bft)
24.07.2016 08:21 20,2 C 84 % 1017,9 hPa 0,0 l/m 1,5 km/h (1 Bft) SO 127 0 min 26 W/m 17,4 C 20,2 C 4,8 km/h (1 Bft)
24.07.2016 08:24 20,3 C 84 % 1017,9 hPa 0,0 l/m 2,1 km/h (1 Bft) SO 127 0 min 25 W/m 17,5 C 20,3 C 3,2 km/h (1 Bft)
24.07.2016 08:27 20,3 C 83 % 1017,9 hPa 0,0 l/m 3,0 km/h (1 Bft) SO 127 0 min 26 W/m 17,3 C 20,3 C 4,8 km/h (1 Bft)
24.07.2016 08:30 20,4 C 83 % 1017,9 hPa 0,0 l/m 3,1 km/h (1 Bft) S-SO 159 0 min 26 W/m 17,4 C 20,4 C 8,0 km/h (2 Bft)
24.07.2016 08:33 20,4 C 83 % 1017,9 hPa 0,0 l/m 4,6 km/h (1 Bft) S-SO 160 0 min 26 W/m 17,4 C 20,4 C 8,0 km/h (2 Bft)
24.07.2016 08:36 20,5 C 83 % 1017,8 hPa 0,0 l/m 3,5 km/h (1 Bft) S-SO 165 0 min 26 W/m 17,5 C 20,5 C 8,0 km/h (2 Bft)
24.07.2016 08:39 20,6 C 82 % 1017,8 hPa 0,0 l/m 1,4 km/h (1 Bft) S-SO 165 0 min 26 W/m 17,4 C 20,6 C 3,2 km/h (1 Bft)
24.07.2016 08:42 20,8 C 82 % 1017,9 hPa 0,0 l/m 2,1 km/h (1 Bft) S-SO 165 0 min 28 W/m 17,6 C 20,8 C 6,4 km/h (2 Bft)
24.07.2016 08:45 20,9 C 82 % 1017,9 hPa 0,0 l/m 3,3 km/h (1 Bft) S 173 0 min 28 W/m 17,7 C 20,9 C 6,4 km/h (2 Bft)
24.07.2016 08:48 21,0 C 82 % 1017,9 hPa 0,0 l/m 3,4 km/h (1 Bft) S 186 0 min 28 W/m 17,8 C 21,0 C 6,4 km/h (2 Bft)
24.07.2016 08:51 21,2 C 81 % 1017,9 hPa 0,0 l/m 2,7 km/h (1 Bft) S 186 0 min 28 W/m 17,8 C 21,2 C 4,8 km/h (1 Bft)
24.07.2016 08:54 21,3 C 80 % 1018,0 hPa 0,0 l/m 2,8 km/h (1 Bft) W-SW 243 0 min 28 W/m 17,7 C 21,3 C 6,4 km/h (2 Bft)
24.07.2016 08:57 21,4 C 80 % 1017,9 hPa 0,0 l/m 2,3 km/h (1 Bft) S-SW 196 0 min 28 W/m 17,8 C 21,4 C 4,8 km/h (1 Bft)
24.07.2016 09:00 21,4 C 79 % 1017,9 hPa 0,0 l/m 2,0 km/h (1 Bft) S-SW 196 0 min 28 W/m 17,6 C 21,4 C 4,8 km/h (1 Bft)
24.07.2016 09:03 21,5 C 79 % 1017,9 hPa 0,0 l/m 1,0 km/h (0 Bft) S-SW 196 0 min 28 W/m 17,7 C 21,5 C 3,2 km/h (1 Bft)
24.07.2016 09:06 21,6 C 78 % 1017,8 hPa 0,0 l/m 0,8 km/h (0 Bft) S-SW 196 0 min 30 W/m 17,6 C 21,6 C 3,2 km/h (1 Bft)
24.07.2016 09:09 21,8 C 78 % 1017,8 hPa 0,0 l/m 0,8 km/h (0 Bft) S-SW 196 0 min 30 W/m 17,8 C 21,8 C 3,2 km/h (1 Bft)
24.07.2016 09:12 22,1 C 78 % 1017,9 hPa 0,0 l/m 0,3 km/h (0 Bft) S-SW 196 0 min 30 W/m 18,1 C 22,1 C 1,6 km/h (1 Bft)
24.07.2016 09:15 22,2 C 77 % 1017,9 hPa 0,0 l/m 2,4 km/h (1 Bft) W-NW 289 0 min 30 W/m 18,0 C 22,2 C 4,8 km/h (1 Bft)
24.07.2016 09:18 22,5 C 76 % 1017,9 hPa 0,0 l/m 2,9 km/h (1 Bft) W 264 0 min 32 W/m 18,0 C 22,5 C 4,8 km/h (1 Bft)
24.07.2016 09:21 22,9 C 75 % 1017,9 hPa 0,0 l/m 1,2 km/h (1 Bft) W 280 0 min 32 W/m 18,2 C 22,9 C 3,2 km/h (1 Bft)
24.07.2016 09:24 24,4 C 69 % 1017,9 hPa 0,0 l/m 1,8 km/h (1 Bft) W 280 3 min 441 W/m 18,3 C 24,4 C 3,2 km/h (1 Bft)
24.07.2016 09:27 24,3 C 71 % 1017,9 hPa 0,0 l/m 1,8 km/h (1 Bft) W 280 0 min 21 W/m 18,7 C 24,3 C 4,8 km/h (1 Bft)
24.07.2016 09:30 24,0 C 71 % 1017,9 hPa 0,0 l/m 2,7 km/h (1 Bft) W 280 0 min 21 W/m 18,4 C 24,0 C 4,8 km/h (1 Bft)
24.07.2016 09:33 23,8 C 72 % 1018,0 hPa 0,0 l/m 2,8 km/h (1 Bft) W 280 0 min 21 W/m 18,4 C 23,8 C 4,8 km/h (1 Bft)
24.07.2016 09:36 23,6 C 74 % 1017,9 hPa 0,0 l/m 3,7 km/h (1 Bft) NW 323 0 min 25 W/m 18,7 C 23,6 C 9,7 km/h (2 Bft)
24.07.2016 09:39 23,4 C 76 % 1018,0 hPa 0,0 l/m 2,0 km/h (1 Bft) NW 317 0 min 23 W/m 18,9 C 23,4 C 4,8 km/h (1 Bft)
24.07.2016 09:42 23,3 C 78 % 1018,0 hPa 0,0 l/m 3,8 km/h (1 Bft) W 275 0 min 26 W/m 19,2 C 23,3 C 6,4 km/h (2 Bft)
24.07.2016 09:45 23,3 C 78 % 1018,0 hPa 0,0 l/m 2,6 km/h (1 Bft) W 278 0 min 30 W/m 19,2 C 23,3 C 4,8 km/h (1 Bft)
24.07.2016 09:48 23,2 C 79 % 1018,0 hPa 0,0 l/m 2,7 km/h (1 Bft) W 272 0 min 32 W/m 19,3 C 23,2 C 9,7 km/h (2 Bft)
24.07.2016 09:51 23,1 C 80 % 1018,0 hPa 0,0 l/m 3,0 km/h (1 Bft) W 274 0 min 37 W/m 19,5 C 23,1 C 6,4 km/h (2 Bft)
24.07.2016 09:54 23,1 C 81 % 1018,0 hPa 0,0 l/m 3,6 km/h (1 Bft) W 275 0 min 44 W/m 19,7 C 23,1 C 9,7 km/h (2 Bft)
24.07.2016 09:57 23,1 C 83 % 1018,0 hPa 0,0 l/m 4,0 km/h (1 Bft) W-NW 302 0 min 58 W/m 20,0 C 23,1 C 8,0 km/h (2 Bft)
24.07.2016 10:00 23,7 C 85 % 1018,0 hPa 0,0 l/m 2,0 km/h (1 Bft) W-NW 302 3 min 466 W/m 21,0 C 23,7 C 4,8 km/h (1 Bft)
24.07.2016 10:03 23,7 C 80 % 1018,0 hPa 0,0 l/m 3,8 km/h (1 Bft) W-NW 294 3 min 452 W/m 20,0 C 23,7 C 6,4 km/h (2 Bft)
24.07.2016 10:06 23,3 C 80 % 1018,0 hPa 0,0 l/m 3,0 km/h (1 Bft) W 273 0 min 79 W/m 19,6 C 23,3 C 9,7 km/h (2 Bft)
24.07.2016 10:09 23,1 C 81 % 1018,0 hPa 0,0 l/m 4,5 km/h (1 Bft) W-NW 300 0 min 107 W/m 19,7 C 23,1 C 11,3 km/h (2 Bft)
24.07.2016 10:12 22,9 C 83 % 1018,0 hPa 0,0 l/m 3,8 km/h (1 Bft) W-NW 282 0 min 46 W/m 19,9 C 22,9 C 9,7 km/h (2 Bft)
24.07.2016 10:15 22,7 C 84 % 1018,0 hPa 0,0 l/m 4,3 km/h (1 Bft) NW 315 3 min 438 W/m 19,9 C 22,7 C 9,7 km/h (2 Bft)
24.07.2016 10:18 22,8 C 86 % 1018,0 hPa 0,0 l/m 4,4 km/h (1 Bft) SW 234 0 min 98 W/m 20,3 C 22,8 C 11,3 km/h (2 Bft)
24.07.2016 10:21 22,6 C 85 % 1018,1 hPa 0,0 l/m 6,2 km/h (2 Bft) W 259 0 min 77 W/m 19,9 C 22,6 C 11,3 km/h (2 Bft)
24.07.2016 10:24 22,4 C 86 % 1018,0 hPa 0,0 l/m 5,6 km/h (2 Bft) W-NW 282 0 min 72 W/m 19,9 C 22,4 C 12,9 km/h (3 Bft)
24.07.2016 10:27 22,3 C 86 % 1018,0 hPa 0,0 l/m 6,8 km/h (2 Bft) W 273 0 min 70 W/m 19,8 C 22,2 C 11,3 km/h (2 Bft)
24.07.2016 10:30 22,3 C 87 % 1018,0 hPa 0,0 l/m 5,2 km/h (1 Bft) W 281 0 min 67 W/m 20,0 C 22,3 C 11,3 km/h (2 Bft)
24.07.2016 10:33 22,3 C 86 % 1018,1 hPa 0,0 l/m 4,7 km/h (1 Bft) W 280 0 min 70 W/m 19,8 C 22,3 C 8,0 km/h (2 Bft)
24.07.2016 10:36 22,2 C 86 % 1018,0 hPa 0,0 l/m 5,2 km/h (1 Bft) W 279 0 min 70 W/m 19,7 C 22,2 C 11,3 km/h (2 Bft)
24.07.2016 10:39 22,2 C 86 % 1018,1 hPa 0,0 l/m 5,2 km/h (1 Bft) W-NW 293 0 min 70 W/m 19,7 C 22,2 C 12,9 km/h (3 Bft)
24.07.2016 10:42 22,2 C 86 % 1018,0 hPa 0,0 l/m 6,0 km/h (2 Bft) NW 304 0 min 81 W/m 19,7 C 22,2 C 12,9 km/h (3 Bft)
24.07.2016 10:45 22,1 C 87 % 1018,1 hPa 0,0 l/m 6,3 km/h (2 Bft) W-NW 294 0 min 74 W/m 19,8 C 22,1 C 12,9 km/h (3 Bft)
24.07.2016 10:48 22,2 C 87 % 1018,1 hPa 0,0 l/m 5,8 km/h (2 Bft) W 274 0 min 79 W/m 19,9 C 22,2 C 11,3 km/h (2 Bft)
24.07.2016 10:51 22,2 C 86 % 1018,1 hPa 0,0 l/m 8,0 km/h (2 Bft) W 277 0 min 76 W/m 19,7 C 21,7 C 12,9 km/h (3 Bft)
24.07.2016 10:54 22,2 C 86 % 1018,0 hPa 0,0 l/m 4,6 km/h (1 Bft) N 350 0 min 76 W/m 19,7 C 22,2 C 11,3 km/h (2 Bft)
24.07.2016 10:57 22,3 C 86 % 1018,0 hPa 0,0 l/m 2,8 km/h (1 Bft) W 262 0 min 79 W/m 19,8 C 22,3 C 11,3 km/h (2 Bft)
24.07.2016 11:00 22,2 C 86 % 1018,0 hPa 0,0 l/m 4,8 km/h (1 Bft) W 270 0 min 79 W/m 19,7 C 22,2 C 12,9 km/h (3 Bft)
24.07.2016 11:03 22,3 C 86 % 1018,1 hPa 0,0 l/m 5,8 km/h (2 Bft) W 259 0 min 81 W/m 19,8 C 22,3 C 9,7 km/h (2 Bft)
24.07.2016 11:06 22,5 C 87 % 1018,1 hPa 0,0 l/m 5,2 km/h (1 Bft) W-SW 250 0 min 97 W/m 20,2 C 22,5 C 14,5 km/h (3 Bft)
24.07.2016 11:09 22,6 C 85 % 1018,2 hPa 0,0 l/m 3,3 km/h (1 Bft) W 277 0 min 100 W/m 19,9 C 22,6 C 8,0 km/h (2 Bft)
24.07.2016 11:12 22,8 C 87 % 1018,2 hPa 0,0 l/m 7,0 km/h (2 Bft) W-NW 296 0 min 156 W/m 20,5 C 22,6 C 14,5 km/h (3 Bft)
24.07.2016 11:15 22,8 C 87 % 1018,2 hPa 0,0 l/m 3,1 km/h (1 Bft) W 277 0 min 195 W/m 20,5 C 22,8 C 6,4 km/h (2 Bft)
24.07.2016 11:18 22,9 C 87 % 1018,2 hPa 0,0 l/m 4,6 km/h (1 Bft) W 275 0 min 141 W/m 20,6 C 22,9 C 11,3 km/h (2 Bft)
24.07.2016 11:21 22,8 C 87 % 1018,1 hPa 0,0 l/m 4,7 km/h (1 Bft) S 173 0 min 118 W/m 20,5 C 22,8 C 11,3 km/h (2 Bft)
24.07.2016 11:24 22,8 C 87 % 1018,2 hPa 0,0 l/m 3,5 km/h (1 Bft) W 275 0 min 174 W/m 20,5 C 22,8 C 11,3 km/h (2 Bft)
24.07.2016 11:27 23,0 C 87 % 1018,2 hPa 0,0 l/m 6,3 km/h (2 Bft) W-NW 296 0 min 113 W/m 20,7 C 23,0 C 11,3 km/h (2 Bft)
24.07.2016 11:30 22,9 C 87 % 1018,1 hPa 0,0 l/m 5,6 km/h (2 Bft) SW 233 0 min 243 W/m 20,6 C 22,9 C 11,3 km/h (2 Bft)
24.07.2016 11:33 23,2 C 87 % 1018,1 hPa 0,0 l/m 4,2 km/h (1 Bft) W 259 0 min 186 W/m 20,9 C 23,2 C 11,3 km/h (2 Bft)
24.07.2016 11:36 23,1 C 86 % 1018,1 hPa 0,0 l/m 5,5 km/h (2 Bft) W-NW 288 0 min 165 W/m 20,6 C 23,1 C 12,9 km/h (3 Bft)
24.07.2016 11:39 23,3 C 87 % 1018,1 hPa 0,0 l/m 5,7 km/h (2 Bft) W 277 0 min 225 W/m 21,0 C 23,3 C 11,3 km/h (2 Bft)
24.07.2016 11:42 23,3 C 86 % 1018,1 hPa 0,0 l/m 5,6 km/h (2 Bft) W-NW 288 3 min 517 W/m 20,8 C 23,3 C 11,3 km/h (2 Bft)
24.07.2016 11:45 23,3 C 84 % 1018,1 hPa 0,0 l/m 4,0 km/h (1 Bft) NW 306 0 min 339 W/m 20,4 C 23,3 C 8,0 km/h (2 Bft)
24.07.2016 11:48 23,4 C 86 % 1018,1 hPa 0,0 l/m 4,5 km/h (1 Bft) SW 227 3 min 898 W/m 20,9 C 23,4 C 8,0 km/h (2 Bft)
24.07.2016 11:51 23,6 C 85 % 1018,1 hPa 0,0 l/m 6,0 km/h (2 Bft) W-NW 300 0 min 251 W/m 20,9 C 23,6 C 14,5 km/h (3 Bft)
24.07.2016 11:54 23,4 C 84 % 1018,0 hPa 0,0 l/m 4,8 km/h (1 Bft) N-NW 348 0 min 336 W/m 20,5 C 23,4 C 8,0 km/h (2 Bft)
24.07.2016 11:57 23,3 C 84 % 1018,1 hPa 0,0 l/m 4,4 km/h (1 Bft) NW 324 0 min 287 W/m 20,4 C 23,3 C 8,0 km/h (2 Bft)
24.07.2016 12:00 23,3 C 85 % 1018,2 hPa 0,0 l/m 5,3 km/h (1 Bft) NW 312 0 min 255 W/m 20,6 C 23,3 C 11,3 km/h (2 Bft)
24.07.2016 12:03 23,3 C 86 % 1018,2 hPa 0,0 l/m 4,3 km/h (1 Bft) NW 306 0 min 257 W/m 20,8 C 23,3 C 11,3 km/h (2 Bft)
24.07.2016 12:06 23,3 C 86 % 1018,2 hPa 0,0 l/m 5,5 km/h (2 Bft) NW 321 0 min 274 W/m 20,8 C 23,3 C 11,3 km/h (2 Bft)
24.07.2016 12:09 23,3 C 86 % 1018,2 hPa 0,0 l/m 5,6 km/h (2 Bft) W-SW 256 0 min 237 W/m 20,8 C 23,3 C 11,3 km/h (2 Bft)
24.07.2016 12:12 23,3 C 86 % 1018,3 hPa 0,0 l/m 9,3 km/h (2 Bft) W-SW 240 0 min 406 W/m 20,8 C 22,5 C 16,1 km/h (3 Bft)
24.07.2016 12:15 23,3 C 86 % 1018,3 hPa 0,0 l/m 6,5 km/h (2 Bft) W 265 0 min 311 W/m 20,8 C 23,3 C 14,5 km/h (3 Bft)
24.07.2016 12:18 23,2 C 86 % 1018,3 hPa 0,0 l/m 9,2 km/h (2 Bft) W 271 0 min 309 W/m 20,7 C 22,4 C 16,1 km/h (3 Bft)
24.07.2016 12:21 23,1 C 86 % 1018,3 hPa 0,0 l/m 7,6 km/h (2 Bft) W 272 0 min 241 W/m 20,6 C 22,7 C 12,9 km/h (3 Bft)
24.07.2016 12:24 22,8 C 86 % 1018,3 hPa 0,0 l/m 8,3 km/h (2 Bft) W 277 0 min 232 W/m 20,3 C 22,2 C 14,5 km/h (3 Bft)
24.07.2016 12:27 22,7 C 86 % 1018,3 hPa 0,0 l/m 6,6 km/h (2 Bft) NW 319 0 min 364 W/m 20,2 C 22,6 C 12,9 km/h (3 Bft)
24.07.2016 12:30 22,7 C 87 % 1018,3 hPa 0,0 l/m 7,0 km/h (2 Bft) W 260 0 min 302 W/m 20,4 C 22,5 C 12,9 km/h (3 Bft)
24.07.2016 12:33 23,0 C 88 % 1018,3 hPa 0,0 l/m 6,4 km/h (2 Bft) W 266 0 min 302 W/m 20,9 C 23,0 C 11,3 km/h (2 Bft)
24.07.2016 12:36 23,3 C 85 % 1018,3 hPa 0,0 l/m 5,1 km/h (1 Bft) W-NW 294 0 min 364 W/m 20,6 C 23,3 C 9,7 km/h (2 Bft)
24.07.2016 12:39 23,1 C 85 % 1018,3 hPa 0,0 l/m 6,3 km/h (2 Bft) NW 324 3 min 573 W/m 20,4 C 23,1 C 11,3 km/h (2 Bft)
24.07.2016 12:42 22,9 C 86 % 1018,3 hPa 0,0 l/m 5,6 km/h (2 Bft) W 270 0 min 338 W/m 20,4 C 22,9 C 11,3 km/h (2 Bft)
24.07.2016 12:45 22,9 C 86 % 1018,3 hPa 0,0 l/m 5,8 km/h (2 Bft) NW 306 0 min 427 W/m 20,4 C 22,9 C 12,9 km/h (3 Bft)
24.07.2016 12:48 22,8 C 86 % 1018,3 hPa 0,0 l/m 5,2 km/h (1 Bft) W 279 0 min 362 W/m 20,3 C 22,8 C 9,7 km/h (2 Bft)
24.07.2016 12:51 23,1 C 86 % 1018,3 hPa 0,0 l/m 6,2 km/h (2 Bft) W-NW 286 3 min 452 W/m 20,6 C 23,1 C 12,9 km/h (3 Bft)
24.07.2016 12:54 23,3 C 85 % 1018,3 hPa 0,0 l/m 6,5 km/h (2 Bft) W 276 0 min 334 W/m 20,6 C 23,3 C 12,9 km/h (3 Bft)
24.07.2016 12:57 23,1 C 84 % 1018,3 hPa 0,0 l/m 9,8 km/h (2 Bft) W 280 0 min 376 W/m 20,2 C 22,1 C 17,7 km/h (3 Bft)
24.07.2016 13:00 23,2 C 85 % 1018,2 hPa 0,0 l/m 5,8 km/h (2 Bft) W 269 3 min 844 W/m 20,5 C 23,2 C 11,3 km/h (2 Bft)
24.07.2016 13:03 23,3 C 83 % 1018,2 hPa 0,0 l/m 8,0 km/h (2 Bft) W 267 3 min 826 W/m 20,2 C 22,8 C 16,1 km/h (3 Bft)
24.07.2016 13:06 23,8 C 83 % 1018,2 hPa 0,0 l/m 8,5 km/h (2 Bft) W-SW 252 3 min 830 W/m 20,7 C 23,2 C 17,7 km/h (3 Bft)
24.07.2016 13:09 23,7 C 83 % 1018,2 hPa 0,0 l/m 6,0 km/h (2 Bft) W-NW 298 0 min 429 W/m 20,6 C 23,7 C 12,9 km/h (3 Bft)
24.07.2016 13:12 23,5 C 83 % 1018,2 hPa 0,0 l/m 4,4 km/h (1 Bft) NW 315 3 min 812 W/m 20,4 C 23,5 C 12,9 km/h (3 Bft)
24.07.2016 13:15 23,3 C 84 % 1018,3 hPa 0,0 l/m 10,1 km/h (2 Bft) W 262 3 min 763 W/m 20,4 C 22,3 C 19,3 km/h (3 Bft)
24.07.2016 13:18 23,2 C 83 % 1018,3 hPa 0,0 l/m 8,3 km/h (2 Bft) W 279 3 min 726 W/m 20,1 C 22,6 C 16,1 km/h (3 Bft)
24.07.2016 13:21 23,3 C 85 % 1018,2 hPa 0,0 l/m 5,2 km/h (1 Bft) S-SW 196 3 min 756 W/m 20,6 C 23,3 C 12,9 km/h (3 Bft)
24.07.2016 13:24 23,5 C 83 % 1018,3 hPa 0,0 l/m 7,2 km/h (2 Bft) W 273 3 min 788 W/m 20,4 C 23,3 C 14,5 km/h (3 Bft)
24.07.2016 13:27 23,5 C 82 % 1018,3 hPa 0,0 l/m 9,5 km/h (2 Bft) W 273 3 min 766 W/m 20,2 C 22,6 C 17,7 km/h (3 Bft)
24.07.2016 13:30 23,4 C 84 % 1018,3 hPa 0,0 l/m 6,6 km/h (2 Bft) SW 234 3 min 763 W/m 20,5 C 23,3 C 11,3 km/h (2 Bft)
24.07.2016 13:33 23,4 C 82 % 1018,3 hPa 0,0 l/m 8,0 km/h (2 Bft) W-NW 298 3 min 756 W/m 20,1 C 22,9 C 14,5 km/h (3 Bft)
24.07.2016 13:36 23,3 C 83 % 1018,3 hPa 0,0 l/m 7,0 km/h (2 Bft) N 350 3 min 766 W/m 20,2 C 23,1 C 16,1 km/h (3 Bft)
24.07.2016 13:39 23,3 C 83 % 1018,3 hPa 0,0 l/m 10,0 km/h (2 Bft) W 271 3 min 780 W/m 20,2 C 22,3 C 16,1 km/h (3 Bft)
24.07.2016 13:42 23,3 C 82 % 1018,3 hPa 0,0 l/m 8,1 km/h (2 Bft) W-SW 246 3 min 786 W/m 20,0 C 22,8 C 14,5 km/h (3 Bft)
24.07.2016 13:45 23,3 C 82 % 1018,3 hPa 0,0 l/m 5,2 km/h (1 Bft) W 260 3 min 807 W/m 20,0 C 23,3 C 11,3 km/h (2 Bft)
24.07.2016 13:48 23,3 C 83 % 1018,3 hPa 0,0 l/m 9,2 km/h (2 Bft) W 265 3 min 747 W/m 20,2 C 22,5 C 16,1 km/h (3 Bft)
24.07.2016 13:51 23,2 C 82 % 1018,3 hPa 0,0 l/m 9,0 km/h (2 Bft) NW 315 3 min 805 W/m 19,9 C 22,4 C 16,1 km/h (3 Bft)
24.07.2016 13:54 23,3 C 82 % 1018,3 hPa 0,0 l/m 6,6 km/h (2 Bft) W 269 3 min 789 W/m 20,0 C 23,2 C 14,5 km/h (3 Bft)
24.07.2016 13:57 23,4 C 84 % 1018,4 hPa 0,0 l/m 9,4 km/h (2 Bft) W 267 3 min 795 W/m 20,5 C 22,5 C 14,5 km/h (3 Bft)
24.07.2016 14:00 23,3 C 82 % 1018,3 hPa 0,0 l/m 7,2 km/h (2 Bft) W 266 3 min 759 W/m 20,0 C 23,1 C 12,9 km/h (3 Bft)
24.07.2016 14:03 23,5 C 85 % 1018,3 hPa 0,0 l/m 6,1 km/h (2 Bft) W 269 3 min 752 W/m 20,8 C 23,5 C 11,3 km/h (2 Bft)
24.07.2016 14:06 23,6 C 81 % 1018,4 hPa 0,0 l/m 7,2 km/h (2 Bft) W-SW 242 3 min 798 W/m 20,1 C 23,4 C 14,5 km/h (3 Bft)
24.07.2016 14:09 23,3 C 83 % 1018,4 hPa 0,0 l/m 8,2 km/h (2 Bft) W 273 3 min 800 W/m 20,2 C 22,8 C 14,5 km/h (3 Bft)
24.07.2016 14:12 23,2 C 82 % 1018,4 hPa 0,0 l/m 7,9 km/h (2 Bft) N-NW 331 3 min 784 W/m 19,9 C 22,7 C 12,9 km/h (3 Bft)
24.07.2016 14:15 23,3 C 82 % 1018,4 hPa 0,0 l/m 7,2 km/h (2 Bft) NW 315 3 min 758 W/m 20,0 C 23,1 C 12,9 km/h (3 Bft)
24.07.2016 14:18 23,3 C 82 % 1018,4 hPa 0,0 l/m 8,1 km/h (2 Bft) NW 316 3 min 831 W/m 20,0 C 22,8 C 12,9 km/h (3 Bft)
24.07.2016 14:21 23,3 C 82 % 1018,4 hPa 0,0 l/m 6,4 km/h (2 Bft) N 5 3 min 786 W/m 20,0 C 23,3 C 12,9 km/h (3 Bft)
24.07.2016 14:24 23,4 C 81 % 1018,5 hPa 0,0 l/m 10,1 km/h (2 Bft) W-NW 282 3 min 823 W/m 19,9 C 22,4 C 16,1 km/h (3 Bft)
24.07.2016 14:27 23,3 C 83 % 1018,4 hPa 0,0 l/m 8,9 km/h (2 Bft) W 274 3 min 782 W/m 20,2 C 22,6 C 14,5 km/h (3 Bft)
24.07.2016 14:30 23,1 C 81 % 1018,5 hPa 0,0 l/m 8,9 km/h (2 Bft) W 276 3 min 784 W/m 19,7 C 22,4 C 16,1 km/h (3 Bft)
24.07.2016 14:33 23,1 C 82 % 1018,5 hPa 0,0 l/m 7,5 km/h (2 Bft) W-SW 253 3 min 770 W/m 19,9 C 22,8 C 14,5 km/h (3 Bft)
24.07.2016 14:36 23,2 C 81 % 1018,4 hPa 0,0 l/m 6,6 km/h (2 Bft) W-SW 250 3 min 803 W/m 19,8 C 23,1 C 19,3 km/h (3 Bft)
24.07.2016 14:39 23,3 C 81 % 1018,4 hPa 0,0 l/m 8,2 km/h (2 Bft) W-SW 240 3 min 777 W/m 19,8 C 22,8 C 14,5 km/h (3 Bft)
24.07.2016 14:42 23,1 C 81 % 1018,4 hPa 0,0 l/m 10,9 km/h (2 Bft) W-SW 254 3 min 763 W/m 19,7 C 21,8 C 16,1 km/h (3 Bft)
24.07.2016 14:45 22,7 C 81 % 1018,3 hPa 0,0 l/m 9,6 km/h (2 Bft) W-SW 247 3 min 758 W/m 19,3 C 21,7 C 16,1 km/h (3 Bft)
24.07.2016 14:48 22,7 C 83 % 1018,4 hPa 0,0 l/m 9,4 km/h (2 Bft) W 279 3 min 768 W/m 19,7 C 21,8 C 17,7 km/h (3 Bft)
24.07.2016 14:51 22,7 C 81 % 1018,4 hPa 0,0 l/m 7,1 km/h (2 Bft) W 260 3 min 754 W/m 19,3 C 22,5 C 17,7 km/h (3 Bft)
24.07.2016 14:54 22,6 C 82 % 1018,3 hPa 0,0 l/m 7,0 km/h (2 Bft) W-NW 297 3 min 754 W/m 19,4 C 22,4 C 16,1 km/h (3 Bft)
24.07.2016 14:57 22,7 C 82 % 1018,4 hPa 0,0 l/m 8,6 km/h (2 Bft) N-NW 335 3 min 747 W/m 19,5 C 22,0 C 14,5 km/h (3 Bft)
24.07.2016 15:00 22,8 C 81 % 1018,3 hPa 0,0 l/m 9,4 km/h (2 Bft) W 278 3 min 745 W/m 19,4 C 21,9 C 17,7 km/h (3 Bft)
24.07.2016 15:03 22,7 C 82 % 1018,3 hPa 0,0 l/m 8,4 km/h (2 Bft) NW 322 3 min 745 W/m 19,5 C 22,1 C 14,5 km/h (3 Bft)
24.07.2016 15:06 22,6 C 82 % 1018,2 hPa 0,0 l/m 6,9 km/h (2 Bft) W-SW 240 3 min 747 W/m 19,4 C 22,4 C 12,9 km/h (3 Bft)
24.07.2016 15:09 22,6 C 81 % 1018,1 hPa 0,0 l/m 7,8 km/h (2 Bft) W 262 3 min 742 W/m 19,2 C 22,1 C 12,9 km/h (3 Bft)
24.07.2016 15:12 22,9 C 82 % 1018,1 hPa 0,0 l/m 8,0 km/h (2 Bft) W-SW 240 3 min 733 W/m 19,7 C 22,4 C 16,1 km/h (3 Bft)
24.07.2016 15:15 23,0 C 80 % 1018,1 hPa 0,0 l/m 5,9 km/h (2 Bft) W-NW 288 3 min 733 W/m 19,4 C 23,0 C 14,5 km/h (3 Bft)
24.07.2016 15:18 22,9 C 81 % 1018,1 hPa 0,0 l/m 7,4 km/h (2 Bft) NW 314 3 min 724 W/m 19,5 C 22,6 C 14,5 km/h (3 Bft)
24.07.2016 15:21 22,8 C 81 % 1018,0 hPa 0,0 l/m 7,2 km/h (2 Bft) SW 231 3 min 728 W/m 19,4 C 22,5 C 16,1 km/h (3 Bft)
24.07.2016 15:24 23,1 C 81 % 1018,0 hPa 0,0 l/m 6,8 km/h (2 Bft) SW 224 3 min 731 W/m 19,7 C 23,0 C 16,1 km/h (3 Bft)
24.07.2016 15:27 22,8 C 81 % 1017,9 hPa 0,0 l/m 8,2 km/h (2 Bft) N-NW 329 3 min 726 W/m 19,4 C 22,2 C 14,5 km/h (3 Bft)
24.07.2016 15:30 22,7 C 81 % 1017,9 hPa 0,0 l/m 9,5 km/h (2 Bft) W-NW 291 3 min 728 W/m 19,3 C 21,8 C 16,1 km/h (3 Bft)
24.07.2016 15:33 22,8 C 82 % 1017,8 hPa 0,0 l/m 10,1 km/h (2 Bft) NW 315 3 min 705 W/m 19,6 C 21,7 C 19,3 km/h (3 Bft)
24.07.2016 15:36 23,1 C 82 % 1017,9 hPa 0,0 l/m 8,2 km/h (2 Bft) W 281 3 min 707 W/m 19,9 C 22,5 C 16,1 km/h (3 Bft)
24.07.2016 15:39 23,1 C 82 % 1017,9 hPa 0,0 l/m 7,1 km/h (2 Bft) W 277 3 min 710 W/m 19,9 C 22,9 C 17,7 km/h (3 Bft)
24.07.2016 15:42 22,9 C 81 % 1017,8 hPa 0,0 l/m 8,8 km/h (2 Bft) W 274 3 min 707 W/m 19,5 C 22,2 C 16,1 km/h (3 Bft)
24.07.2016 15:45 23,3 C 81 % 1017,9 hPa 0,0 l/m 4,2 km/h (1 Bft) S-SW 194 3 min 703 W/m 19,8 C 23,3 C 9,7 km/h (2 Bft)
24.07.2016 15:48 23,8 C 80 % 1017,8 hPa 0,0 l/m 8,7 km/h (2 Bft) W 260 3 min 698 W/m 20,1 C 23,2 C 14,5 km/h (3 Bft)
24.07.2016 15:51 23,3 C 79 % 1017,8 hPa 0,0 l/m 8,6 km/h (2 Bft) W-SW 252 3 min 698 W/m 19,4 C 22,6 C 17,7 km/h (3 Bft)
24.07.2016 15:54 23,4 C 81 % 1017,8 hPa 0,0 l/m 6,5 km/h (2 Bft) W 273 3 min 686 W/m 19,9 C 23,4 C 14,5 km/h (3 Bft)
24.07.2016 15:57 23,4 C 81 % 1017,8 hPa 0,0 l/m 8,7 km/h (2 Bft) N-NO 17 3 min 682 W/m 19,9 C 22,7 C 14,5 km/h (3 Bft)
24.07.2016 16:00 23,5 C 80 % 1017,7 hPa 0,0 l/m 5,3 km/h (1 Bft) W 259 3 min 687 W/m 19,8 C 23,5 C 11,3 km/h (2 Bft)
24.07.2016 16:03 23,6 C 79 % 1017,7 hPa 0,0 l/m 10,6 km/h (2 Bft) W-SW 254 3 min 680 W/m 19,7 C 22,5 C 16,1 km/h (3 Bft)
24.07.2016 16:06 23,6 C 80 % 1017,8 hPa 0,0 l/m 9,3 km/h (2 Bft) W-SW 241 3 min 677 W/m 19,9 C 22,8 C 16,1 km/h (3 Bft)
24.07.2016 16:09 23,4 C 79 % 1017,8 hPa 0,0 l/m 8,6 km/h (2 Bft) W-NW 283 3 min 661 W/m 19,5 C 22,8 C 14,5 km/h (3 Bft)
24.07.2016 16:12 23,6 C 80 % 1017,8 hPa 0,0 l/m 5,5 km/h (2 Bft) W 269 3 min 645 W/m 19,9 C 23,6 C 14,5 km/h (3 Bft)
24.07.2016 16:15 23,2 C 81 % 1017,8 hPa 0,0 l/m 8,4 km/h (2 Bft) W-NW 296 3 min 663 W/m 19,8 C 22,6 C 14,5 km/h (3 Bft)
24.07.2016 16:18 22,9 C 81 % 1017,8 hPa 0,0 l/m 7,4 km/h (2 Bft) NW 309 3 min 652 W/m 19,5 C 22,6 C 14,5 km/h (3 Bft)
24.07.2016 16:21 22,8 C 82 % 1017,8 hPa 0,0 l/m 5,1 km/h (1 Bft) N-NW 347 3 min 642 W/m 19,6 C 22,8 C 11,3 km/h (2 Bft)
24.07.2016 16:24 22,7 C 83 % 1017,8 hPa 0,0 l/m 5,7 km/h (2 Bft) N-NW 346 3 min 638 W/m 19,7 C 22,7 C 16,1 km/h (3 Bft)
24.07.2016 16:27 22,6 C 83 % 1017,7 hPa 0,0 l/m 4,3 km/h (1 Bft) NW 315 3 min 624 W/m 19,6 C 22,6 C 8,0 km/h (2 Bft)
24.07.2016 16:30 22,6 C 84 % 1017,7 hPa 0,0 l/m 5,2 km/h (1 Bft) NW 321 3 min 578 W/m 19,8 C 22,6 C 9,7 km/h (2 Bft)
24.07.2016 16:33 22,7 C 83 % 1017,7 hPa 0,0 l/m 5,8 km/h (2 Bft) W 276 3 min 617 W/m 19,7 C 22,7 C 12,9 km/h (3 Bft)
24.07.2016 16:36 22,7 C 82 % 1017,7 hPa 0,0 l/m 7,7 km/h (2 Bft) W-NW 301 3 min 626 W/m 19,5 C 22,3 C 12,9 km/h (3 Bft)
24.07.2016 16:39 22,8 C 83 % 1017,7 hPa 0,0 l/m 3,8 km/h (1 Bft) SW 227 3 min 626 W/m 19,8 C 22,8 C 9,7 km/h (2 Bft)
24.07.2016 16:42 23,0 C 81 % 1017,7 hPa 0,0 l/m 5,6 km/h (2 Bft) NW 326 3 min 598 W/m 19,6 C 23,0 C 14,5 km/h (3 Bft)
24.07.2016 16:45 23,0 C 82 % 1017,7 hPa 0,0 l/m 5,5 km/h (2 Bft) W-NW 286 3 min 568 W/m 19,8 C 23,0 C 12,9 km/h (3 Bft)
24.07.2016 16:48 23,1 C 82 % 1017,7 hPa 0,0 l/m 6,7 km/h (2 Bft) N-NW 333 3 min 584 W/m 19,9 C 23,0 C 14,5 km/h (3 Bft)
24.07.2016 16:51 23,2 C 82 % 1017,7 hPa 0,0 l/m 6,1 km/h (2 Bft) W 281 3 min 531 W/m 19,9 C 23,2 C 12,9 km/h (3 Bft)
24.07.2016 16:54 23,1 C 81 % 1017,8 hPa 0,0 l/m 6,9 km/h (2 Bft) W 260 3 min 566 W/m 19,7 C 22,9 C 14,5 km/h (3 Bft)
24.07.2016 16:57 23,1 C 81 % 1017,7 hPa 0,0 l/m 6,9 km/h (2 Bft) W 279 3 min 563 W/m 19,7 C 22,9 C 14,5 km/h (3 Bft)
24.07.2016 17:00 23,0 C 82 % 1017,7 hPa 0,0 l/m 7,1 km/h (2 Bft) W-NW 302 3 min 522 W/m 19,8 C 22,8 C 11,3 km/h (2 Bft)
24.07.2016 17:03 22,8 C 81 % 1017,7 hPa 0,0 l/m 5,8 km/h (2 Bft) W-SW 257 3 min 508 W/m 19,4 C 22,8 C 12,9 km/h (3 Bft)
24.07.2016 17:06 22,8 C 83 % 1017,7 hPa 0,0 l/m 8,4 km/h (2 Bft) W-NW 295 3 min 501 W/m 19,8 C 22,2 C 14,5 km/h (3 Bft)
24.07.2016 17:09 22,8 C 82 % 1017,6 hPa 0,0 l/m 7,4 km/h (2 Bft) W 267 3 min 399 W/m 19,6 C 22,5 C 12,9 km/h (3 Bft)
24.07.2016 17:12 22,8 C 83 % 1017,6 hPa 0,0 l/m 6,1 km/h (2 Bft) NW 308 3 min 517 W/m 19,8 C 22,8 C 12,9 km/h (3 Bft)
24.07.2016 17:15 22,8 C 83 % 1017,5 hPa 0,0 l/m 4,6 km/h (1 Bft) W-NW 298 3 min 536 W/m 19,8 C 22,8 C 9,7 km/h (2 Bft)
24.07.2016 17:18 22,8 C 82 % 1017,5 hPa 0,0 l/m 6,5 km/h (2 Bft) W-NW 301 3 min 541 W/m 19,6 C 22,8 C 16,1 km/h (3 Bft)
24.07.2016 17:21 22,7 C 82 % 1017,5 hPa 0,0 l/m 6,2 km/h (2 Bft) W-NW 294 3 min 517 W/m 19,5 C 22,7 C 11,3 km/h (2 Bft)
24.07.2016 17:24 22,6 C 82 % 1017,5 hPa 0,0 l/m 5,3 km/h (1 Bft) N 350 3 min 527 W/m 19,4 C 22,6 C 12,9 km/h (3 Bft)
24.07.2016 17:27 22,4 C 82 % 1017,5 hPa 0,0 l/m 6,2 km/h (2 Bft) NW 305 3 min 519 W/m 19,2 C 22,4 C 12,9 km/h (3 Bft)
24.07.2016 17:30 22,4 C 83 % 1017,5 hPa 0,0 l/m 5,5 km/h (2 Bft) W-NW 296 3 min 508 W/m 19,4 C 22,4 C 9,7 km/h (2 Bft)
24.07.2016 17:33 22,3 C 81 % 1017,5 hPa 0,0 l/m 6,9 km/h (2 Bft) NW 316 3 min 499 W/m 18,9 C 22,1 C 12,9 km/h (3 Bft)
24.07.2016 17:36 22,3 C 82 % 1017,5 hPa 0,0 l/m 6,5 km/h (2 Bft) W-NW 284 3 min 480 W/m 19,1 C 22,3 C 14,5 km/h (3 Bft)
24.07.2016 17:39 22,2 C 83 % 1017,5 hPa 0,0 l/m 7,2 km/h (2 Bft) N-NW 333 3 min 482 W/m 19,2 C 21,9 C 12,9 km/h (3 Bft)
24.07.2016 17:42 22,1 C 84 % 1017,4 hPa 0,0 l/m 7,9 km/h (2 Bft) NW 317 3 min 473 W/m 19,3 C 21,6 C 12,9 km/h (3 Bft)
24.07.2016 17:45 22,2 C 84 % 1017,4 hPa 0,0 l/m 7,3 km/h (2 Bft) W-NW 298 3 min 455 W/m 19,4 C 21,9 C 14,5 km/h (3 Bft)
24.07.2016 17:48 22,1 C 84 % 1017,4 hPa 0,0 l/m 5,4 km/h (2 Bft) N 355 3 min 411 W/m 19,3 C 22,1 C 9,7 km/h (2 Bft)
24.07.2016 17:51 22,1 C 84 % 1017,4 hPa 0,0 l/m 6,6 km/h (2 Bft) NW 323 3 min 410 W/m 19,3 C 22,0 C 14,5 km/h (3 Bft)
24.07.2016 17:54 22,1 C 84 % 1017,4 hPa 0,0 l/m 7,7 km/h (2 Bft) W-NW 299 3 min 403 W/m 19,3 C 21,7 C 17,7 km/h (3 Bft)
24.07.2016 17:57 22,1 C 83 % 1017,4 hPa 0,0 l/m 5,7 km/h (2 Bft) N 349 3 min 394 W/m 19,1 C 22,1 C 12,9 km/h (3 Bft)
24.07.2016 18:00 22,1 C 84 % 1017,5 hPa 0,0 l/m 4,4 km/h (1 Bft) W-NW 296 3 min 353 W/m 19,3 C 22,1 C 12,9 km/h (3 Bft)
24.07.2016 18:03 21,9 C 83 % 1017,5 hPa 0,0 l/m 5,1 km/h (1 Bft) NW 319 3 min 294 W/m 18,9 C 21,9 C 12,9 km/h (3 Bft)
24.07.2016 18:06 21,8 C 84 % 1017,5 hPa 0,0 l/m 9,7 km/h (2 Bft) N-NW 344 3 min 346 W/m 19,0 C 20,7 C 16,1 km/h (3 Bft)
24.07.2016 18:09 21,6 C 84 % 1017,4 hPa 0,0 l/m 10,9 km/h (2 Bft) N 360 3 min 387 W/m 18,8 C 20,2 C 17,7 km/h (3 Bft)
24.07.2016 18:12 21,7 C 84 % 1017,5 hPa 0,0 l/m 7,4 km/h (2 Bft) NW 325 3 min 378 W/m 18,9 C 21,3 C 12,9 km/h (3 Bft)
24.07.2016 18:15 21,8 C 84 % 1017,5 hPa 0,0 l/m 5,4 km/h (2 Bft) N 355 0 min 183 W/m 19,0 C 21,8 C 9,7 km/h (2 Bft)
24.07.2016 18:18 21,6 C 84 % 1017,5 hPa 0,0 l/m 8,0 km/h (2 Bft) W-NW 291 0 min 188 W/m 18,8 C 21,0 C 12,9 km/h (3 Bft)
24.07.2016 18:21 21,3 C 85 % 1017,5 hPa 0,0 l/m 6,3 km/h (2 Bft) NW 310 0 min 104 W/m 18,7 C 21,3 C 12,9 km/h (3 Bft)
24.07.2016 18:24 21,2 C 86 % 1017,6 hPa 0,0 l/m 6,5 km/h (2 Bft) W 281 0 min 174 W/m 18,8 C 21,2 C 12,9 km/h (3 Bft)
24.07.2016 18:27 21,3 C 86 % 1017,6 hPa 0,0 l/m 8,1 km/h (2 Bft) NW 313 3 min 345 W/m 18,9 C 20,7 C 14,5 km/h (3 Bft)
24.07.2016 18:30 21,3 C 85 % 1017,5 hPa 0,0 l/m 8,3 km/h (2 Bft) W-NW 292 3 min 265 W/m 18,7 C 20,6 C 17,7 km/h (3 Bft)
24.07.2016 18:33 21,2 C 86 % 1017,5 hPa 0,0 l/m 8,0 km/h (2 Bft) NW 315 3 min 253 W/m 18,8 C 20,6 C 16,1 km/h (3 Bft)
24.07.2016 18:36 21,2 C 86 % 1017,5 hPa 0,0 l/m 7,2 km/h (2 Bft) N-NW 330 3 min 274 W/m 18,8 C 20,9 C 16,1 km/h (3 Bft)
24.07.2016 18:39 21,2 C 86 % 1017,6 hPa 0,0 l/m 6,4 km/h (2 Bft) N-NW 336 3 min 234 W/m 18,8 C 21,2 C 14,5 km/h (3 Bft)
24.07.2016 18:42 21,2 C 86 % 1017,5 hPa 0,0 l/m 7,3 km/h (2 Bft) W 275 3 min 299 W/m 18,8 C 20,9 C 14,5 km/h (3 Bft)
24.07.2016 18:45 21,1 C 86 % 1017,5 hPa 0,0 l/m 8,3 km/h (2 Bft) W-SW 247 3 min 283 W/m 18,7 C 20,4 C 16,1 km/h (3 Bft)
24.07.2016 18:48 21,0 C 87 % 1017,5 hPa 0,0 l/m 7,1 km/h (2 Bft) W-NW 302 3 min 329 W/m 18,7 C 20,7 C 14,5 km/h (3 Bft)
24.07.2016 18:51 21,0 C 86 % 1017,5 hPa 0,0 l/m 6,5 km/h (2 Bft) N 355 0 min 200 W/m 18,6 C 21,0 C 11,3 km/h (2 Bft)
24.07.2016 18:54 21,0 C 86 % 1017,5 hPa 0,0 l/m 8,1 km/h (2 Bft) NW 307 3 min 311 W/m 18,6 C 20,4 C 14,5 km/h (3 Bft)
24.07.2016 18:57 20,9 C 87 % 1017,5 hPa 0,0 l/m 4,1 km/h (1 Bft) N-NO 16 3 min 281 W/m 18,7 C 20,9 C 8,0 km/h (2 Bft)
24.07.2016 19:00 21,1 C 87 % 1017,5 hPa 0,0 l/m 5,1 km/h (1 Bft) W-NW 302 3 min 209 W/m 18,8 C 21,1 C 9,7 km/h (2 Bft)
24.07.2016 19:03 20,9 C 86 % 1017,5 hPa 0,0 l/m 7,3 km/h (2 Bft) N 350 0 min 142 W/m 18,5 C 20,6 C 12,9 km/h (3 Bft)
24.07.2016 19:06 20,8 C 87 % 1017,5 hPa 0,0 l/m 8,8 km/h (2 Bft) N-NW 346 3 min 202 W/m 18,6 C 19,9 C 14,5 km/h (3 Bft)
24.07.2016 19:09 20,8 C 88 % 1017,5 hPa 0,0 l/m 6,1 km/h (2 Bft) NW 317 3 min 211 W/m 18,7 C 20,8 C 9,7 km/h (2 Bft)
24.07.2016 19:12 20,8 C 87 % 1017,5 hPa 0,0 l/m 7,4 km/h (2 Bft) N-NW 339 0 min 98 W/m 18,6 C 20,4 C 14,5 km/h (3 Bft)
24.07.2016 19:15 20,6 C 88 % 1017,4 hPa 0,0 l/m 7,8 km/h (2 Bft) N 360 0 min 88 W/m 18,5 C 20,1 C 14,5 km/h (3 Bft)
24.07.2016 19:18 20,6 C 88 % 1017,4 hPa 0,0 l/m 7,9 km/h (2 Bft) W 279 0 min 84 W/m 18,5 C 20,0 C 12,9 km/h (3 Bft)
24.07.2016 19:21 20,5 C 88 % 1017,4 hPa 0,0 l/m 8,5 km/h (2 Bft) NW 322 0 min 88 W/m 18,4 C 19,7 C 14,5 km/h (3 Bft)
24.07.2016 19:24 20,4 C 89 % 1017,4 hPa 0,0 l/m 6,0 km/h (2 Bft) W 275 0 min 79 W/m 18,5 C 20,4 C 11,3 km/h (2 Bft)
24.07.2016 19:27 20,4 C 88 % 1017,4 hPa 0,0 l/m 5,2 km/h (1 Bft) W-SW 248 0 min 62 W/m 18,3 C 20,4 C 11,3 km/h (2 Bft)
24.07.2016 19:30 20,4 C 88 % 1017,4 hPa 0,0 l/m 6,8 km/h (2 Bft) NW 306 0 min 72 W/m 18,3 C 20,2 C 12,9 km/h (3 Bft)
24.07.2016 19:33 20,4 C 89 % 1017,3 hPa 0,0 l/m 5,9 km/h (2 Bft) NW 308 0 min 65 W/m 18,5 C 20,4 C 12,9 km/h (3 Bft)
24.07.2016 19:36 20,3 C 89 % 1017,4 hPa 0,0 l/m 5,9 km/h (2 Bft) N-NW 337 0 min 70 W/m 18,4 C 20,3 C 12,9 km/h (3 Bft)
24.07.2016 19:39 20,4 C 89 % 1017,4 hPa 0,0 l/m 5,6 km/h (2 Bft) NW 315 0 min 53 W/m 18,5 C 20,4 C 12,9 km/h (3 Bft)
24.07.2016 19:42 20,4 C 90 % 1017,4 hPa 0,0 l/m 4,8 km/h (1 Bft) NW 324 0 min 56 W/m 18,7 C 20,4 C 11,3 km/h (2 Bft)
24.07.2016 19:45 20,4 C 90 % 1017,4 hPa 0,0 l/m 3,1 km/h (1 Bft) W 277 0 min 69 W/m 18,7 C 20,4 C 4,8 km/h (1 Bft)
24.07.2016 19:48 20,4 C 90 % 1017,4 hPa 0,0 l/m 5,6 km/h (2 Bft) NW 311 0 min 65 W/m 18,7 C 20,4 C 9,7 km/h (2 Bft)
24.07.2016 19:51 20,4 C 90 % 1017,3 hPa 0,0 l/m 6,6 km/h (2 Bft) N-NW 337 0 min 63 W/m 18,7 C 20,3 C 12,9 km/h (3 Bft)
24.07.2016 19:54 20,3 C 90 % 1017,3 hPa 0,0 l/m 4,7 km/h (1 Bft) N-NW 338 0 min 63 W/m 18,6 C 20,3 C 9,7 km/h (2 Bft)
24.07.2016 19:57 20,3 C 90 % 1017,3 hPa 0,0 l/m 7,2 km/h (2 Bft) NW 309 0 min 62 W/m 18,6 C 20,0 C 11,3 km/h (2 Bft)
24.07.2016 20:00 20,3 C 90 % 1017,3 hPa 0,0 l/m 5,8 km/h (2 Bft) N-NW 340 0 min 60 W/m 18,6 C 20,3 C 9,7 km/h (2 Bft)
24.07.2016 20:03 20,3 C 89 % 1017,3 hPa 0,0 l/m 5,8 km/h (2 Bft) N-NW 344 0 min 62 W/m 18,4 C 20,3 C 8,0 km/h (2 Bft)
24.07.2016 20:06 20,3 C 89 % 1017,3 hPa 0,0 l/m 5,6 km/h (2 Bft) NW 321 0 min 60 W/m 18,4 C 20,3 C 8,0 km/h (2 Bft)
24.07.2016 20:09 20,3 C 89 % 1017,2 hPa 0,0 l/m 5,5 km/h (2 Bft) N-NW 327 0 min 58 W/m 18,4 C 20,3 C 12,9 km/h (3 Bft)
24.07.2016 20:12 20,4 C 89 % 1017,3 hPa 0,0 l/m 6,7 km/h (2 Bft) NW 311 0 min 53 W/m 18,5 C 20,3 C 9,7 km/h (2 Bft)
24.07.2016 20:15 20,4 C 89 % 1017,2 hPa 0,0 l/m 4,2 km/h (1 Bft) NW 321 0 min 51 W/m 18,5 C 20,4 C 6,4 km/h (2 Bft)
24.07.2016 20:18 20,5 C 89 % 1017,2 hPa 0,0 l/m 5,2 km/h (1 Bft) N 360 0 min 49 W/m 18,6 C 20,5 C 8,0 km/h (2 Bft)
24.07.2016 20:21 20,4 C 89 % 1017,2 hPa 0,0 l/m 6,0 km/h (2 Bft) NW 308 0 min 46 W/m 18,5 C 20,4 C 8,0 km/h (2 Bft)
24.07.2016 20:24 20,4 C 89 % 1017,3 hPa 0,0 l/m 4,6 km/h (1 Bft) N-NW 328 0 min 42 W/m 18,5 C 20,4 C 8,0 km/h (2 Bft)
24.07.2016 20:27 20,5 C 89 % 1017,3 hPa 0,0 l/m 2,3 km/h (1 Bft) NW 325 0 min 40 W/m 18,6 C 20,5 C 6,4 km/h (2 Bft)
24.07.2016 20:30 20,4 C 89 % 1017,3 hPa 0,0 l/m 1,9 km/h (1 Bft) NW 325 0 min 37 W/m 18,5 C 20,4 C 3,2 km/h (1 Bft)
24.07.2016 20:33 20,4 C 90 % 1017,2 hPa 0,0 l/m 5,1 km/h (1 Bft) NW 306 0 min 35 W/m 18,7 C 20,4 C 9,7 km/h (2 Bft)
24.07.2016 20:36 20,4 C 89 % 1017,2 hPa 0,0 l/m 5,5 km/h (2 Bft) NW 320 0 min 33 W/m 18,5 C 20,4 C 8,0 km/h (2 Bft)
24.07.2016 20:39 20,4 C 89 % 1017,2 hPa 0,0 l/m 4,5 km/h (1 Bft) N-NW 333 0 min 32 W/m 18,5 C 20,4 C 8,0 km/h (2 Bft)
24.07.2016 20:42 20,4 C 89 % 1017,2 hPa 0,0 l/m 2,3 km/h (1 Bft) N-NW 327 0 min 30 W/m 18,5 C 20,4 C 4,8 km/h (1 Bft)
24.07.2016 20:45 20,4 C 89 % 1017,2 hPa 0,0 l/m 2,0 km/h (1 Bft) N-NO 26 0 min 28 W/m 18,5 C 20,4 C 4,8 km/h (1 Bft)
24.07.2016 20:48 20,3 C 90 % 1017,2 hPa 0,0 l/m 0,7 km/h (0 Bft) N-NO 25 0 min 26 W/m 18,6 C 20,3 C 1,6 km/h (1 Bft)
24.07.2016 20:51 20,2 C 90 % 1017,2 hPa 0,0 l/m 2,5 km/h (1 Bft) N-NO 17 0 min 25 W/m 18,5 C 20,2 C 6,4 km/h (2 Bft)
24.07.2016 20:54 20,2 C 90 % 1017,2 hPa 0,0 l/m 1,8 km/h (1 Bft) N-NO 17 0 min 25 W/m 18,5 C 20,2 C 3,2 km/h (1 Bft)
24.07.2016 20:57 20,2 C 90 % 1017,2 hPa 0,0 l/m 3,2 km/h (1 Bft) NW 317 0 min 21 W/m 18,5 C 20,2 C 3,2 km/h (1 Bft)
24.07.2016 21:00 20,2 C 90 % 1017,2 hPa 0,0 l/m 4,0 km/h (1 Bft) N-NW 345 0 min 19 W/m 18,5 C 20,2 C 8,0 km/h (2 Bft)
24.07.2016 21:03 20,2 C 90 % 1017,2 hPa 0,0 l/m 2,1 km/h (1 Bft) N-NW 330 0 min 18 W/m 18,5 C 20,2 C 4,8 km/h (1 Bft)
24.07.2016 21:12 19,9 C 90 % 1017,1 hPa 0,0 l/m 1,1 km/h (1 Bft) N 360 0 min 12 W/m 18,2 C 19,9 C 3,2 km/h (1 Bft)
24.07.2016 21:15 19,8 C 91 % 1017,2 hPa 0,0 l/m 1,1 km/h (1 Bft) N 355 0 min 9 W/m 18,3 C 19,8 C 3,2 km/h (1 Bft)
24.07.2016 21:21 19,8 C 91 % 1017,2 hPa 0,0 l/m 0,9 km/h (0 Bft) N-NW 337 0 min 5 W/m 18,3 C 19,8 C 3,2 km/h (1 Bft)
24.07.2016 21:24 19,7 C 91 % 1017,2 hPa 0,0 l/m 0,6 km/h (0 Bft) N-NW 337 0 min 5 W/m 18,2 C 19,7 C 3,2 km/h (1 Bft)
24.07.2016 21:27 19,7 C 91 % 1017,2 hPa 0,0 l/m 2,2 km/h (1 Bft) N-NW 337 0 min 0 W/m 18,2 C 19,7 C 4,8 km/h (1 Bft)
24.07.2016 21:30 19,7 C 91 % 1017,3 hPa 0,0 l/m 1,8 km/h (1 Bft) N-NW 337 0 min 0 W/m 18,2 C 19,7 C 3,2 km/h (1 Bft)
24.07.2016 21:33 19,6 C 91 % 1017,3 hPa 0,0 l/m 1,4 km/h (1 Bft) N-NW 337 0 min 0 W/m 18,1 C 19,6 C 4,8 km/h (1 Bft)
24.07.2016 21:36 19,6 C 92 % 1017,3 hPa 0,0 l/m 2,7 km/h (1 Bft) N-NW 347 0 min 0 W/m 18,3 C 19,6 C 4,8 km/h (1 Bft)
24.07.2016 21:39 19,6 C 92 % 1017,3 hPa 0,0 l/m 2,1 km/h (1 Bft) N-NW 347 0 min 0 W/m 18,3 C 19,6 C 4,8 km/h (1 Bft)
24.07.2016 21:42 19,4 C 92 % 1017,3 hPa 0,0 l/m 0,2 km/h (0 Bft) N-NW 347 0 min 0 W/m 18,1 C 19,4 C 1,6 km/h (1 Bft)
24.07.2016 21:45 19,4 C 92 % 1017,3 hPa 0,0 l/m 0,7 km/h (0 Bft) N-NW 347 0 min 0 W/m 18,1 C 19,4 C 3,2 km/h (1 Bft)
24.07.2016 21:48 19,4 C 92 % 1017,4 hPa 0,0 l/m 2,1 km/h (1 Bft) N-NW 347 0 min 0 W/m 18,1 C 19,4 C 3,2 km/h (1 Bft)
24.07.2016 21:51 19,4 C 92 % 1017,4 hPa 0,0 l/m 0,6 km/h (0 Bft) N 350 0 min 0 W/m 18,1 C 19,4 C 3,2 km/h (1 Bft)
24.07.2016 21:54 19,3 C 92 % 1017,5 hPa 0,0 l/m 0,8 km/h (0 Bft) N 350 0 min 0 W/m 18,0 C 19,3 C 3,2 km/h (1 Bft)
24.07.2016 21:57 19,3 C 92 % 1017,4 hPa 0,0 l/m 0,9 km/h (0 Bft) N 350 0 min 0 W/m 18,0 C 19,3 C 3,2 km/h (1 Bft)
24.07.2016 22:00 19,3 C 93 % 1017,4 hPa 0,0 l/m 0,6 km/h (0 Bft) N 350 0 min 0 W/m 18,1 C 19,3 C 3,2 km/h (1 Bft)
24.07.2016 22:03 19,2 C 93 % 1017,4 hPa 0,0 l/m 0,7 km/h (0 Bft) N 350 0 min 0 W/m 18,0 C 19,2 C 1,6 km/h (1 Bft)
24.07.2016 22:06 19,1 C 93 % 1017,5 hPa 0,0 l/m 0,6 km/h (0 Bft) N 350 0 min 0 W/m 17,9 C 19,1 C 1,6 km/h (1 Bft)
24.07.2016 22:09 19,1 C 93 % 1017,5 hPa 0,0 l/m 0,0 km/h (0 Bft) N 350 0 min 0 W/m 17,9 C 19,1 C 0,0 km/h (0 Bft)
24.07.2016 22:12 18,9 C 93 % 1017,4 hPa 0,0 l/m 0,2 km/h (0 Bft) N 350 0 min 0 W/m 17,7 C 18,9 C 1,6 km/h (1 Bft)
24.07.2016 22:15 18,8 C 93 % 1017,5 hPa 0,0 l/m 0,1 km/h (0 Bft) N 350 0 min 0 W/m 17,6 C 18,8 C 1,6 km/h (1 Bft)
24.07.2016 22:18 18,8 C 94 % 1017,4 hPa 0,0 l/m 0,0 km/h (0 Bft) N 350 0 min 0 W/m 17,8 C 18,8 C 1,6 km/h (1 Bft)
24.07.2016 22:21 18,8 C 93 % 1017,5 hPa 0,0 l/m 0,3 km/h (0 Bft) N 350 0 min 0 W/m 17,6 C 18,8 C 1,6 km/h (1 Bft)
24.07.2016 22:24 18,7 C 94 % 1017,5 hPa 0,0 l/m 0,3 km/h (0 Bft) N 350 0 min 0 W/m 17,7 C 18,7 C 1,6 km/h (1 Bft)
24.07.2016 22:27 18,7 C 94 % 1017,5 hPa 0,0 l/m 0,1 km/h (0 Bft) N 350 0 min 0 W/m 17,7 C 18,7 C 1,6 km/h (1 Bft)
24.07.2016 22:30 18,6 C 94 % 1017,5 hPa 0,0 l/m 0,5 km/h (0 Bft) N 350 0 min 0 W/m 17,6 C 18,6 C 1,6 km/h (1 Bft)
24.07.2016 22:33 18,6 C 94 % 1017,5 hPa 0,0 l/m 0,5 km/h (0 Bft) N 350 0 min 0 W/m 17,6 C 18,6 C 3,2 km/h (1 Bft)
24.07.2016 22:36 18,6 C 94 % 1017,6 hPa 0,0 l/m 1,3 km/h (1 Bft) N 350 0 min 0 W/m 17,6 C 18,6 C 3,2 km/h (1 Bft)
24.07.2016 22:39 18,6 C 94 % 1017,5 hPa 0,0 l/m 0,2 km/h (0 Bft) N 350 0 min 0 W/m 17,6 C 18,6 C 1,6 km/h (1 Bft)
24.07.2016 22:42 18,6 C 94 % 1017,5 hPa 0,0 l/m 0,0 km/h (0 Bft) N 350 0 min 0 W/m 17,6 C 18,6 C 1,6 km/h (1 Bft)
24.07.2016 22:45 18,5 C 94 % 1017,5 hPa 0,0 l/m 0,2 km/h (0 Bft) N 350 0 min 0 W/m 17,5 C 18,5 C 1,6 km/h (1 Bft)
24.07.2016 22:48 18,4 C 94 % 1017,4 hPa 0,0 l/m 1,3 km/h (1 Bft) N 350 0 min 0 W/m 17,4 C 18,4 C 3,2 km/h (1 Bft)
24.07.2016 22:51 18,4 C 95 % 1017,4 hPa 0,0 l/m 1,2 km/h (1 Bft) N-NW 342 0 min 0 W/m 17,6 C 18,4 C 4,8 km/h (1 Bft)
24.07.2016 22:54 18,6 C 95 % 1017,4 hPa 0,0 l/m 1,9 km/h (1 Bft) N-NW 343 0 min 0 W/m 17,8 C 18,6 C 3,2 km/h (1 Bft)
24.07.2016 22:57 18,6 C 95 % 1017,4 hPa 0,0 l/m 1,4 km/h (1 Bft) N-NW 343 0 min 0 W/m 17,8 C 18,6 C 3,2 km/h (1 Bft)
24.07.2016 23:00 18,7 C 95 % 1017,4 hPa 0,0 l/m 1,2 km/h (1 Bft) N-NW 343 0 min 0 W/m 17,9 C 18,7 C 4,8 km/h (1 Bft)
24.07.2016 23:03 18,7 C 95 % 1017,3 hPa 0,0 l/m 2,1 km/h (1 Bft) N-NW 343 0 min 0 W/m 17,9 C 18,7 C 4,8 km/h (1 Bft)
24.07.2016 23:06 18,7 C 95 % 1017,4 hPa 0,0 l/m 1,7 km/h (1 Bft) N 5 0 min 0 W/m 17,9 C 18,7 C 4,8 km/h (1 Bft)
24.07.2016 23:09 18,7 C 95 % 1017,3 hPa 0,0 l/m 1,2 km/h (1 Bft) N 355 0 min 0 W/m 17,9 C 18,7 C 4,8 km/h (1 Bft)
24.07.2016 23:12 18,7 C 95 % 1017,3 hPa 0,0 l/m 0,4 km/h (0 Bft) N 355 0 min 0 W/m 17,9 C 18,7 C 1,6 km/h (1 Bft)
24.07.2016 23:15 18,7 C 95 % 1017,3 hPa 0,0 l/m 0,5 km/h (0 Bft) N 355 0 min 0 W/m 17,9 C 18,7 C 3,2 km/h (1 Bft)
24.07.2016 23:18 18,6 C 95 % 1017,3 hPa 0,0 l/m 1,3 km/h (1 Bft) N 355 0 min 0 W/m 17,8 C 18,6 C 3,2 km/h (1 Bft)
24.07.2016 23:21 18,6 C 95 % 1017,3 hPa 0,0 l/m 0,7 km/h (0 Bft) N 355 0 min 0 W/m 17,8 C 18,6 C 3,2 km/h (1 Bft)
24.07.2016 23:24 18,6 C 95 % 1017,4 hPa 0,0 l/m 0,0 km/h (0 Bft) N 355 0 min 0 W/m 17,8 C 18,6 C 0,0 km/h (0 Bft)
24.07.2016 23:27 18,5 C 95 % 1017,3 hPa 0,0 l/m 0,0 km/h (0 Bft) N 355 0 min 0 W/m 17,7 C 18,5 C 1,6 km/h (1 Bft)
24.07.2016 23:30 18,4 C 95 % 1017,3 hPa 0,0 l/m 1,5 km/h (1 Bft) N 355 0 min 0 W/m 17,6 C 18,4 C 3,2 km/h (1 Bft)
24.07.2016 23:33 18,4 C 95 % 1017,3 hPa 0,0 l/m 0,8 km/h (0 Bft) N 355 0 min 0 W/m 17,6 C 18,4 C 3,2 km/h (1 Bft)
24.07.2016 23:36 18,4 C 95 % 1017,4 hPa 0,0 l/m 0,1 km/h (0 Bft) N 355 0 min 0 W/m 17,6 C 18,4 C 1,6 km/h (1 Bft)
24.07.2016 23:39 18,3 C 95 % 1017,4 hPa 0,0 l/m 0,2 km/h (0 Bft) N 355 0 min 0 W/m 17,5 C 18,3 C 1,6 km/h (1 Bft)
24.07.2016 23:42 18,3 C 95 % 1017,4 hPa 0,0 l/m 0,2 km/h (0 Bft) N 355 0 min 0 W/m 17,5 C 18,3 C 1,6 km/h (1 Bft)
24.07.2016 23:45 18,3 C 95 % 1017,3 hPa 0,0 l/m 0,0 km/h (0 Bft) N 355 0 min 0 W/m 17,5 C 18,3 C 0,0 km/h (0 Bft)
24.07.2016 23:48 18,3 C 95 % 1017,3 hPa 0,0 l/m 0,7 km/h (0 Bft) N 355 0 min 0 W/m 17,5 C 18,3 C 3,2 km/h (1 Bft)
24.07.2016 23:51 18,3 C 95 % 1017,4 hPa 0,0 l/m 0,6 km/h (0 Bft) N 355 0 min 0 W/m 17,5 C 18,3 C 3,2 km/h (1 Bft)
24.07.2016 23:54 18,3 C 95 % 1017,3 hPa 0,0 l/m 0,2 km/h (0 Bft) N 355 0 min 0 W/m 17,5 C 18,3 C 1,6 km/h (1 Bft)
24.07.2016 23:57 18,3 C 95 % 1017,3 hPa 0,0 l/m 0,8 km/h (0 Bft) N 355 0 min 0 W/m 17,5 C 18,3 C 3,2 km/h (1 Bft)
_ Min-Zeit 05:27 09:24 21:12 - 00:00 - - - - 05:15 05:27 00:03
Minimum _ 16,9 C 69 % 1017,1 hPa - 0,0 km/h (0 Bft) - - - - 15,0 C 17,0 C 0,0 km/h (0 Bft)
_ Max-Zeit 09:24 22:51 14:24 00:00 14:42 - - 09:24 11:48 10:00 09:24 13:15
Maximum _ 24,4 C 95 % 1018,5 hPa 0,0 l/m 10,9 km/h
W-SW (2 Bft)
- - 3 min 898 W/m 21,0 C 24,4 C 19,3 km/h
W (3 Bft)
Durchschnitt _ 20,7 C 86 % 1017,9 hPa #0,0 l/m 3,4 km/h (1 Bft) W - #6:15 h 294 W/m 18,3 C 20,6 C 7,2 km/h (2 Bft)
2016 Cux-Wetter.de -Die Nutzung der Wetterdaten nur mit ausdrcklicher Genehmigung